Observation data for Truscott on 01/17/2021      Previous  Date  Next       Current Mesonet Observations  Soil Data  Daily Summary Page  Observations in Plain Language
KTR1 170600Z 27005KT 03/M05 A3006 RMK A01 T00331049  RH  055%=      5-min Rain = 0
KTR1 170601Z 27005KT 04/M05 A3007 RMK A01 T00351049  RH  054%=      5-min Rain = 0
KTR1 170602Z 27005KT 04/M05 A3007 RMK A01 T00351050  RH  054%=      5-min Rain = 0
KTR1 170603Z 27005KT 04/M05 A3007 RMK A01 T00361049  RH  054%=      5-min Rain = 0
KTR1 170604Z 28005KT 04/M05 A3007 RMK A01 T00361049  RH  054%=      5-min Rain = 0
KTR1 170605Z 28005KT 04/M05 A3007 RMK A01 T00351050  RH  054%=      5-min Rain = 0
KTR1 170606Z 27005KT 03/M05 A3007 RMK A01 T00341049  RH  055%=      5-min Rain = 0
KTR1 170607Z 27005KT 03/M05 A3007 RMK A01 T00311049  RH  056%=      5-min Rain = 0
KTR1 170608Z 27005KT 03/M05 A3007 RMK A01 T00291049  RH  057%=      5-min Rain = 0
KTR1 170609Z 28005KT 03/M05 A3007 RMK A01 T00281049  RH  057%=      5-min Rain = 0
KTR1 170610Z 28005KT 03/M05 A3007 RMK A01 T00271048  RH  058%=      5-min Rain = 0
KTR1 170611Z 28005KT 03/M05 A3007 RMK A01 T00261048  RH  058%=      5-min Rain = 0
KTR1 170612Z 28005KT 02/M05 A3007 RMK A01 T00241048  RH  059%=      5-min Rain = 0
KTR1 170613Z 28005KT 02/M05 A3007 RMK A01 T00231047  RH  059%=      5-min Rain = 0
KTR1 170614Z 28005KT 02/M05 A3007 RMK A01 T00231047  RH  060%=      5-min Rain = 0
KTR1 170615Z 28005KT 02/M05 A3007 RMK A01 T00221047  RH  060%=      5-min Rain = 0
KTR1 170616Z 28005KT 02/M05 A3007 RMK A01 T00221047  RH  060%=      5-min Rain = 0
KTR1 170617Z 28006KT 02/M05 A3007 RMK A01 T00221048  RH  060%=      5-min Rain = 0
KTR1 170618Z 28006KT 02/M05 A3007 RMK A01 T00231049  RH  059%=      5-min Rain = 0
KTR1 170619Z 28006KT 02/M05 A3007 RMK A01 T00241048  RH  059%=      5-min Rain = 0
KTR1 170620Z 28005KT 02/M05 A3007 RMK A01 T00231048  RH  059%=      5-min Rain = 0
KTR1 170621Z 28005KT 02/M05 A3007 RMK A01 T00231048  RH  059%=      5-min Rain = 0
KTR1 170622Z 28005KT 02/M05 A3007 RMK A01 T00221048  RH  060%=      5-min Rain = 0
KTR1 170623Z 28005KT 02/M05 A3007 RMK A01 T00211048  RH  061%=      5-min Rain = 0
KTR1 170624Z 28004KT 02/M05 A3007 RMK A01 T00191047  RH  061%=      5-min Rain = 0
KTR1 170625Z 28005KT 02/M05 A3007 RMK A01 T00191047  RH  062%=      5-min Rain = 0
KTR1 170626Z 28005KT 02/M05 A3007 RMK A01 T00181047  RH  062%=      5-min Rain = 0
KTR1 170627Z 28005KT 02/M05 A3007 RMK A01 T00161046  RH  063%=      5-min Rain = 0
KTR1 170628Z 28006KT 02/M05 A3007 RMK A01 T00151046  RH  064%=      5-min Rain = 0
KTR1 170629Z 28005KT 02/M05 A3007 RMK A01 T00151046  RH  064%=      5-min Rain = 0
KTR1 170630Z 28005KT 01/M05 A3007 RMK A01 T00141046  RH  064%=      5-min Rain = 0
KTR1 170631Z 28005KT 02/M05 A3007 RMK A01 T00151046  RH  064%=      5-min Rain = 0
KTR1 170632Z 28005KT 02/M05 A3007 RMK A01 T00151046  RH  064%=      5-min Rain = 0
KTR1 170633Z 28004KT 02/M05 A3007 RMK A01 T00151046  RH  064%=      5-min Rain = 0
KTR1 170634Z 28004KT 02/M05 A3007 RMK A01 T00151046  RH  064%=      5-min Rain = 0
KTR1 170635Z 28004KT 02/M05 A3007 RMK A01 T00151046  RH  064%=      5-min Rain = 0
KTR1 170636Z 28004KT 02/M05 A3007 RMK A01 T00161046  RH  064%=      5-min Rain = 0
KTR1 170637Z 28004KT 02/M05 A3008 RMK A01 T00161046  RH  064%=      5-min Rain = 0
KTR1 170638Z 28004KT 02/M05 A3008 RMK A01 T00161046  RH  063%=      5-min Rain = 0
KTR1 170639Z 29005KT 02/M05 A3008 RMK A01 T00171046  RH  063%=      5-min Rain = 0
KTR1 170640Z 28005KT 02/M05 A3008 RMK A01 T00171046  RH  063%=      5-min Rain = 0
KTR1 170641Z 28006KT 02/M05 A3008 RMK A01 T00181047  RH  062%=      5-min Rain = 0
KTR1 170642Z 28006KT 02/M05 A3008 RMK A01 T00181047  RH  062%=      5-min Rain = 0
KTR1 170643Z 28005KT 02/M05 A3008 RMK A01 T00191047  RH  062%=      5-min Rain = 0
KTR1 170644Z 28006KT 02/M05 A3008 RMK A01 T00201048  RH  061%=      5-min Rain = 0
KTR1 170645Z 29006KT 02/M05 A3008 RMK A01 T00211048  RH  061%=      5-min Rain = 0
KTR1 170646Z 28005KT 02/M05 A3008 RMK A01 T00211048  RH  060%=      5-min Rain = 0
KTR1 170647Z 28005KT 02/M05 A3008 RMK A01 T00221048  RH  060%=      5-min Rain = 0
KTR1 170648Z 29006KT 02/M05 A3008 RMK A01 T00221048  RH  060%=      5-min Rain = 0
KTR1 170649Z 29006KT 02/M05 A3008 RMK A01 T00221048  RH  060%=      5-min Rain = 0
KTR1 170650Z 29006KT 02/M05 A3008 RMK A01 T00221047  RH  060%=      5-min Rain = 0
KTR1 170651Z 29006KT 02/M05 A3008 RMK A01 T00221048  RH  060%=      5-min Rain = 0
KTR1 170652Z 29006KT 02/M05 A3008 RMK A01 T00231048  RH  060%=      5-min Rain = 0
KTR1 170653Z 29006KT 02/M05 A3008 RMK A01 T00231048  RH  060%=      5-min Rain = 0
KTR1 170654Z 29006KT 02/M05 A3008 RMK A01 T00231047  RH  060%=      5-min Rain = 0
KTR1 170655Z 29006KT 02/M05 A3008 RMK A01 T00221047  RH  060%=      5-min Rain = 0
KTR1 170656Z 29006KT 02/M05 A3008 RMK A01 T00211047  RH  060%=      5-min Rain = 0
KTR1 170657Z 29007KT 02/M05 A3008 RMK A01 T00211047  RH  061%=      5-min Rain = 0
KTR1 170658Z 29007KT 02/M05 A3008 RMK A01 T00211047  RH  061%=      5-min Rain = 0
KTR1 170659Z 29007KT 02/M05 A3008 RMK A01 T00211047  RH  060%=      5-min Rain = 0
KTR1 170700Z 29007KT 02/M05 A3008 RMK A01 T00221048  RH  060%=      5-min Rain = 0
KTR1 170701Z 29007KT 02/M05 A3008 RMK A01 T00221048  RH  060%=      5-min Rain = 0
KTR1 170702Z 29007KT 02/M05 A3008 RMK A01 T00221047  RH  060%=      5-min Rain = 0
KTR1 170703Z 29006KT 02/M05 A3008 RMK A01 T00211047  RH  060%=      5-min Rain = 0
KTR1 170704Z 29007KT 02/M05 A3008 RMK A01 T00211047  RH  061%=      5-min Rain = 0
KTR1 170705Z 29006KT 02/M05 A3008 RMK A01 T00201047  RH  061%=      5-min Rain = 0
KTR1 170706Z 29006KT 02/M05 A3008 RMK A01 T00201047  RH  061%=      5-min Rain = 0
KTR1 170707Z 29006KT 02/M05 A3008 RMK A01 T00201047  RH  061%=      5-min Rain = 0
KTR1 170708Z 29006KT 02/M05 A3008 RMK A01 T00201047  RH  061%=      5-min Rain = 0
KTR1 170709Z 29006KT 02/M05 A3008 RMK A01 T00191047  RH  062%=      5-min Rain = 0
KTR1 170710Z 29006KT 02/M05 A3008 RMK A01 T00191047  RH  062%=      5-min Rain = 0
KTR1 170711Z 29006KT 02/M05 A3008 RMK A01 T00191047  RH  062%=      5-min Rain = 0
KTR1 170712Z 29006KT 02/M05 A3008 RMK A01 T00191047  RH  062%=      5-min Rain = 0
KTR1 170713Z 29006KT 02/M05 A3008 RMK A01 T00191047  RH  062%=      5-min Rain = 0
KTR1 170714Z 29006KT 02/M05 A3008 RMK A01 T00191047  RH  062%=      5-min Rain = 0
KTR1 170715Z 29006KT 02/M05 A3008 RMK A01 T00191047  RH  062%=      5-min Rain = 0
KTR1 170716Z 29006KT 02/M05 A3008 RMK A01 T00201047  RH  062%=      5-min Rain = 0
KTR1 170717Z 29006KT 02/M05 A3008 RMK A01 T00201047  RH  061%=      5-min Rain = 0
KTR1 170718Z 29006KT 02/M05 A3008 RMK A01 T00201047  RH  061%=      5-min Rain = 0
KTR1 170719Z 29006KT 02/M05 A3008 RMK A01 T00201047  RH  061%=      5-min Rain = 0
KTR1 170720Z 29006KT 02/M05 A3008 RMK A01 T00211047  RH  061%=      5-min Rain = 0
KTR1 170721Z 29006KT 02/M05 A3008 RMK A01 T00211047  RH  061%=      5-min Rain = 0
KTR1 170722Z 29005KT 02/M05 A3008 RMK A01 T00211048  RH  060%=      5-min Rain = 0
KTR1 170723Z 29005KT 02/M05 A3008 RMK A01 T00221047  RH  060%=      5-min Rain = 0
KTR1 170724Z 29005KT 02/M05 A3008 RMK A01 T00231048  RH  060%=      5-min Rain = 0
KTR1 170725Z 29005KT 02/M05 A3008 RMK A01 T00231048  RH  059%=      5-min Rain = 0
KTR1 170726Z 29005KT 02/M05 A3008 RMK A01 T00241048  RH  059%=      5-min Rain = 0
KTR1 170727Z 29005KT 02/M05 A3009 RMK A01 T00241048  RH  059%=      5-min Rain = 0
KTR1 170728Z 29006KT 02/M05 A3009 RMK A01 T00241048  RH  059%=      5-min Rain = 0
KTR1 170729Z 28006KT 02/M05 A3009 RMK A01 T00241048  RH  059%=      5-min Rain = 0
KTR1 170730Z 28006KT 03/M05 A3009 RMK A01 T00251047  RH  059%=      5-min Rain = 0
KTR1 170731Z 28005KT 03/M05 A3009 RMK A01 T00251047  RH  059%=      5-min Rain = 0
KTR1 170732Z 28006KT 03/M05 A3009 RMK A01 T00261047  RH  059%=      5-min Rain = 0
KTR1 170733Z 28005KT 03/M05 A3009 RMK A01 T00261047  RH  059%=      5-min Rain = 0
KTR1 170734Z 28006KT 03/M05 A3009 RMK A01 T00261047  RH  059%=      5-min Rain = 0
KTR1 170735Z 28005KT 03/M05 A3009 RMK A01 T00251047  RH  059%=      5-min Rain = 0
KTR1 170736Z 28006KT 03/M05 A3009 RMK A01 T00251048  RH  059%=      5-min Rain = 0
KTR1 170737Z 28006KT 03/M05 A3009 RMK A01 T00251048  RH  059%=      5-min Rain = 0
KTR1 170738Z 28006KT 02/M05 A3009 RMK A01 T00241048  RH  059%=      5-min Rain = 0
KTR1 170739Z 28006KT 02/M05 A3009 RMK A01 T00241048  RH  059%=      5-min Rain = 0
KTR1 170740Z 28006KT 02/M05 A3009 RMK A01 T00241048  RH  059%=      5-min Rain = 0
KTR1 170741Z 28005KT 02/M05 A3009 RMK A01 T00241049  RH  059%=      5-min Rain = 0
KTR1 170742Z 28005KT 03/M05 A3009 RMK A01 T00251049  RH  058%=      5-min Rain = 0
KTR1 170743Z 28005KT 03/M05 A3009 RMK A01 T00251049  RH  058%=      5-min Rain = 0
KTR1 170744Z 28005KT 03/M05 A3009 RMK A01 T00251049  RH  058%=      5-min Rain = 0
KTR1 170745Z 28006KT 03/M05 A3009 RMK A01 T00261049  RH  058%=      5-min Rain = 0
KTR1 170746Z 28006KT 03/M05 A3009 RMK A01 T00261048  RH  058%=      5-min Rain = 0
KTR1 170747Z 28006KT 03/M05 A3009 RMK A01 T00261048  RH  058%=      5-min Rain = 0
KTR1 170748Z 28006KT 03/M05 A3008 RMK A01 T00261049  RH  058%=      5-min Rain = 0
KTR1 170749Z 28007KT 03/M05 A3008 RMK A01 T00261049  RH  058%=      5-min Rain = 0
KTR1 170750Z 28007KT 03/M05 A3008 RMK A01 T00271048  RH  058%=      5-min Rain = 0
KTR1 170751Z 28007KT 03/M05 A3009 RMK A01 T00281048  RH  058%=      5-min Rain = 0
KTR1 170752Z 28007KT 03/M05 A3009 RMK A01 T00281048  RH  057%=      5-min Rain = 0
KTR1 170753Z 28008KT 03/M05 A3009 RMK A01 T00291047  RH  058%=      5-min Rain = 0
KTR1 170754Z 29008KT 03/M05 A3009 RMK A01 T00281047  RH  058%=      5-min Rain = 0
KTR1 170755Z 29008KT 03/M05 A3009 RMK A01 T00271046  RH  059%=      5-min Rain = 0
KTR1 170756Z 29008KT 03/M05 A3009 RMK A01 T00261046  RH  059%=      5-min Rain = 0
KTR1 170757Z 29008KT 03/M05 A3009 RMK A01 T00261046  RH  059%=      5-min Rain = 0
KTR1 170758Z 29008KT 03/M05 A3009 RMK A01 T00261046  RH  059%=      5-min Rain = 0
KTR1 170759Z 29008KT 03/M05 A3009 RMK A01 T00251045  RH  060%=      5-min Rain = 0
KTR1 170800Z 28008KT 03/M05 A3009 RMK A01 T00251045  RH  060%=      5-min Rain = 0
KTR1 170801Z 29008KT 03/M05 A3009 RMK A01 T00251045  RH  060%=      5-min Rain = 0
KTR1 170802Z 29008KT 03/M05 A3009 RMK A01 T00251045  RH  060%=      5-min Rain = 0
KTR1 170803Z 29008KT 03/M05 A3009 RMK A01 T00251045  RH  060%=      5-min Rain = 0
KTR1 170804Z 29008KT 03/M05 A3009 RMK A01 T00261045  RH  059%=      5-min Rain = 0
KTR1 170805Z 29008KT 03/M05 A3009 RMK A01 T00261046  RH  059%=      5-min Rain = 0
KTR1 170806Z 29008KT 03/M05 A3009 RMK A01 T00261046  RH  059%=      5-min Rain = 0
KTR1 170807Z 29007KT 03/M05 A3009 RMK A01 T00261046  RH  059%=      5-min Rain = 0
KTR1 170808Z 29007KT 03/M05 A3009 RMK A01 T00261046  RH  059%=      5-min Rain = 0
KTR1 170809Z 29007KT 03/M05 A3009 RMK A01 T00261046  RH  059%=      5-min Rain = 0
KTR1 170810Z 29007KT 03/M05 A3009 RMK A01 T00261046  RH  059%=      5-min Rain = 0
KTR1 170811Z 30007KT 03/M05 A3009 RMK A01 T00261046  RH  059%=      5-min Rain = 0
KTR1 170812Z 30006KT 03/M05 A3009 RMK A01 T00261046  RH  059%=      5-min Rain = 0
KTR1 170813Z 30006KT 03/M05 A3009 RMK A01 T00261045  RH  059%=      5-min Rain = 0
KTR1 170814Z 31006KT 03/M05 A3009 RMK A01 T00251045  RH  060%=      5-min Rain = 0
KTR1 170815Z 32007KT 02/M05 A301 RMK A01 T00241045  RH  060%=      5-min Rain = 0
KTR1 170816Z 33008KT 02/M05 A301 RMK A01 T00221045  RH  061%=      5-min Rain = 0
KTR1 170817Z 33008KT 02/M05 A301 RMK A01 T00221045  RH  061%=      5-min Rain = 0
KTR1 170818Z 33008KT 02/M05 A301 RMK A01 T00231045  RH  061%=      5-min Rain = 0
KTR1 170819Z 32008KT 03/M05 A301 RMK A01 T00251045  RH  060%=      5-min Rain = 0
KTR1 170820Z 32009KT 03/M05 A301 RMK A01 T00271047  RH  059%=      5-min Rain = 0
KTR1 170821Z 31009KT 03/M05 A301 RMK A01 T00281047  RH  058%=      5-min Rain = 0
KTR1 170822Z 31010KT 03/M05 A301 RMK A01 T00291047  RH  057%=      5-min Rain = 0
KTR1 170823Z 31009KT 03/M05 A301 RMK A01 T00301046  RH  057%=      5-min Rain = 0
KTR1 170824Z 31009KT 03/M05 A301 RMK A01 T00311047  RH  057%=      5-min Rain = 0
KTR1 170825Z 31009KT 03/M05 A301 RMK A01 T00311046  RH  057%=      5-min Rain = 0
KTR1 170826Z 31009KT 03/M05 A301 RMK A01 T00311046  RH  057%=      5-min Rain = 0
KTR1 170827Z 32008KT 03/M05 A301 RMK A01 T00301046  RH  057%=      5-min Rain = 0
KTR1 170828Z 31008KT 03/M05 A301 RMK A01 T00291046  RH  058%=      5-min Rain = 0
KTR1 170829Z 31008KT 03/M05 A301 RMK A01 T00291046  RH  058%=      5-min Rain = 0
KTR1 170830Z 32008KT 03/M05 A301 RMK A01 T00301046  RH  058%=      5-min Rain = 0
KTR1 170831Z 32008KT 03/M05 A3009 RMK A01 T00291046  RH  058%=      5-min Rain = 0
KTR1 170832Z 32008KT 03/M05 A3009 RMK A01 T00301046  RH  057%=      5-min Rain = 0
KTR1 170833Z 31008KT 03/M05 A3009 RMK A01 T00301045  RH  057%=      5-min Rain = 0
KTR1 170834Z 31008KT 03/M05 A3009 RMK A01 T00311046  RH  057%=      5-min Rain = 0
KTR1 170835Z 32008KT 03/M05 A3009 RMK A01 T00311045  RH  057%=      5-min Rain = 0
KTR1 170836Z 32008KT 03/M05 A3009 RMK A01 T00311046  RH  057%=      5-min Rain = 0
KTR1 170837Z 32007KT 03/M05 A3009 RMK A01 T00321045  RH  057%=      5-min Rain = 0
KTR1 170838Z 32007KT 03/M05 A3009 RMK A01 T00321046  RH  057%=      5-min Rain = 0
KTR1 170839Z 32007KT 03/M05 A3009 RMK A01 T00321045  RH  057%=      5-min Rain = 0
KTR1 170840Z 32007KT 03/M05 A301 RMK A01 T00301046  RH  057%=      5-min Rain = 0
KTR1 170841Z 32008KT 03/M05 A301 RMK A01 T00301045  RH  058%=      5-min Rain = 0
KTR1 170842Z 32008KT 03/M05 A301 RMK A01 T00301045  RH  058%=      5-min Rain = 0
KTR1 170843Z 33009KT 03/M05 A301 RMK A01 T00291045  RH  058%=      5-min Rain = 0
KTR1 170844Z 32009KT 03/M05 A301 RMK A01 T00291045  RH  058%=      5-min Rain = 0
KTR1 170845Z 32009KT 03/M05 A301 RMK A01 T00291045  RH  058%=      5-min Rain = 0
KTR1 170846Z 32009KT 03/M05 A301 RMK A01 T00291045  RH  058%=      5-min Rain = 0
KTR1 170847Z 32009KT 03/M05 A301 RMK A01 T00281045  RH  059%=      5-min Rain = 0
KTR1 170848Z 32009KT 03/M04 A301 RMK A01 T00281044  RH  059%=      5-min Rain = 0
KTR1 170849Z 32009KT 03/M04 A301 RMK A01 T00271044  RH  059%=      5-min Rain = 0
KTR1 170850Z 32009KT 03/M04 A301 RMK A01 T00271044  RH  060%=      5-min Rain = 0
KTR1 170851Z 32009KT 03/M04 A301 RMK A01 T00261043  RH  060%=      5-min Rain = 0
KTR1 170852Z 32009KT 03/M04 A301 RMK A01 T00251043  RH  061%=      5-min Rain = 0
KTR1 170853Z 32008KT 02/M04 A301 RMK A01 T00241042  RH  061%=      5-min Rain = 0
KTR1 170854Z 32009KT 02/M04 A301 RMK A01 T00241043  RH  062%=      5-min Rain = 0
KTR1 170855Z 32009KT 02/M04 A301 RMK A01 T00241043  RH  062%=      5-min Rain = 0
KTR1 170856Z 32009KT 02/M04 A301 RMK A01 T00241042  RH  062%=      5-min Rain = 0
KTR1 170857Z 32009KT 03/M04 A301 RMK A01 T00251042  RH  061%=      5-min Rain = 0
KTR1 170858Z 32009KT 03/M04 A301 RMK A01 T00261042  RH  061%=      5-min Rain = 0
KTR1 170859Z 32010KT 03/M04 A301 RMK A01 T00271041  RH  061%=      5-min Rain = 0
KTR1 170900Z 32010KT 03/M04 A301 RMK A01 T00281041  RH  061%=      5-min Rain = 0
KTR1 170901Z 32011KT 03/M04 A301 RMK A01 T00281041  RH  060%=      5-min Rain = 0
KTR1 170902Z 32010KT 03/M04 A301 RMK A01 T00301040  RH  060%=      5-min Rain = 0
KTR1 170903Z 32010KT 03/M04 A301 RMK A01 T00301040  RH  060%=      5-min Rain = 0
KTR1 170904Z 31010KT 03/M04 A301 RMK A01 T00301041  RH  060%=      5-min Rain = 0
KTR1 170905Z 32010KT 03/M04 A301 RMK A01 T00301041  RH  060%=      5-min Rain = 0
KTR1 170906Z 32010KT 03/M04 A301 RMK A01 T00301040  RH  060%=      5-min Rain = 0
KTR1 170907Z 32009KT 03/M04 A301 RMK A01 T00301041  RH  060%=      5-min Rain = 0
KTR1 170908Z 32009KT 03/M04 A301 RMK A01 T00301040  RH  060%=      5-min Rain = 0
KTR1 170909Z 32009KT 03/M04 A301 RMK A01 T00291040  RH  060%=      5-min Rain = 0
KTR1 170910Z 32009KT 03/M04 A301 RMK A01 T00291040  RH  060%=      5-min Rain = 0
KTR1 170911Z 32009KT 03/M04 A301 RMK A01 T00281040  RH  061%=      5-min Rain = 0
KTR1 170912Z 32009KT 03/M04 A301 RMK A01 T00281040  RH  061%=      5-min Rain = 0
KTR1 170913Z 32009KT 03/M04 A301 RMK A01 T00271040  RH  061%=      5-min Rain = 0
KTR1 170914Z 32009KT 03/M04 A301 RMK A01 T00261040  RH  062%=      5-min Rain = 0
KTR1 170915Z 32008KT 03/M04 A301 RMK A01 T00251040  RH  062%=      5-min Rain = 0
KTR1 170916Z 32009KT 03/M04 A301 RMK A01 T00261040  RH  062%=      5-min Rain = 0
KTR1 170917Z 32009KT 03/M04 A301 RMK A01 T00261040  RH  062%=      5-min Rain = 0
KTR1 170918Z 32010KT 03/M04 A301 RMK A01 T00261040  RH  062%=      5-min Rain = 0
KTR1 170919Z 33010KT 03/M04 A301 RMK A01 T00261040  RH  062%=      5-min Rain = 0
KTR1 170920Z 33010KT 03/M04 A301 RMK A01 T00271040  RH  062%=      5-min Rain = 0
KTR1 170921Z 33010KT 03/M04 A301 RMK A01 T00271040  RH  061%=      5-min Rain = 0
KTR1 170922Z 33010KT 03/M04 A301 RMK A01 T00281039  RH  061%=      5-min Rain = 0
KTR1 170923Z 33010KT 03/M04 A301 RMK A01 T00291040  RH  061%=      5-min Rain = 0
KTR1 170924Z 33010KT 03/M04 A301 RMK A01 T00281039  RH  061%=      5-min Rain = 0
KTR1 170925Z 33010KT 03/M04 A301 RMK A01 T00271040  RH  061%=      5-min Rain = 0
KTR1 170926Z 32010KT 03/M04 A301 RMK A01 T00271039  RH  062%=      5-min Rain = 0
KTR1 170927Z 32010KT 03/M04 A301 RMK A01 T00261039  RH  062%=      5-min Rain = 0
KTR1 170928Z 32010KT 03/M04 A301 RMK A01 T00251039  RH  063%=      5-min Rain = 0
KTR1 170929Z 32010KT 03/M04 A301 RMK A01 T00251039  RH  063%=      5-min Rain = 0
KTR1 170930Z 32010KT 02/M04 A301 RMK A01 T00241039  RH  063%=      5-min Rain = 0
KTR1 170931Z 32009KT 02/M04 A301 RMK A01 T00241039  RH  063%=      5-min Rain = 0
KTR1 170932Z 31009KT 02/M04 A301 RMK A01 T00231039  RH  063%=      5-min Rain = 0
KTR1 170933Z 31009KT 02/M04 A301 RMK A01 T00221039  RH  064%=      5-min Rain = 0
KTR1 170934Z 32010KT 02/M04 A301 RMK A01 T00211039  RH  064%=      5-min Rain = 0
KTR1 170935Z 31008KT 02/M04 A301 RMK A01 T00241039  RH  063%=      5-min Rain = 0
KTR1 170936Z 32008KT 03/M04 A301 RMK A01 T00251039  RH  063%=      5-min Rain = 0
KTR1 170937Z 32008KT 03/M04 A301 RMK A01 T00251039  RH  062%=      5-min Rain = 0
KTR1 170938Z 32008KT 03/M04 A301 RMK A01 T00251039  RH  062%=      5-min Rain = 0
KTR1 170939Z 32008KT 03/M04 A301 RMK A01 T00251039  RH  063%=      5-min Rain = 0
KTR1 170940Z 32009KT 02/M04 A301 RMK A01 T00241039  RH  063%=      5-min Rain = 0
KTR1 170941Z 32008KT 03/M04 A301 RMK A01 T00251039  RH  063%=      5-min Rain = 0
KTR1 170942Z 32008KT 03/M04 A301 RMK A01 T00251039  RH  063%=      5-min Rain = 0
KTR1 170943Z 32008KT 03/M04 A301 RMK A01 T00251038  RH  063%=      5-min Rain = 0
KTR1 170944Z 32007KT 03/M04 A301 RMK A01 T00251038  RH  063%=      5-min Rain = 0
KTR1 170945Z 32008KT 02/M04 A301 RMK A01 T00231038  RH  064%=      5-min Rain = 0
KTR1 170946Z 32008KT 02/M04 A301 RMK A01 T00241038  RH  064%=      5-min Rain = 0
KTR1 170947Z 32007KT 02/M04 A301 RMK A01 T00241038  RH  064%=      5-min Rain = 0
KTR1 170948Z 31007KT 02/M04 A301 RMK A01 T00241038  RH  064%=      5-min Rain = 0
KTR1 170949Z 32007KT 02/M04 A301 RMK A01 T00241038  RH  064%=      5-min Rain = 0
KTR1 170950Z 32007KT 02/M04 A301 RMK A01 T00241037  RH  064%=      5-min Rain = 0
KTR1 170951Z 31008KT 02/M04 A301 RMK A01 T00231037  RH  064%=      5-min Rain = 0
KTR1 170952Z 32007KT 02/M04 A301 RMK A01 T00231037  RH  064%=      5-min Rain = 0
KTR1 170953Z 32008KT 02/M04 A301 RMK A01 T00231038  RH  064%=      5-min Rain = 0
KTR1 170954Z 32008KT 02/M04 A301 RMK A01 T00231038  RH  064%=      5-min Rain = 0
KTR1 170955Z 32007KT 02/M04 A301 RMK A01 T00231037  RH  064%=      5-min Rain = 0
KTR1 170956Z 31008KT 02/M04 A301 RMK A01 T00231037  RH  064%=      5-min Rain = 0
KTR1 170957Z 31008KT 02/M04 A301 RMK A01 T00221037  RH  065%=      5-min Rain = 0
KTR1 170958Z 32007KT 02/M04 A301 RMK A01 T00221037  RH  065%=      5-min Rain = 0
KTR1 170959Z 31008KT 02/M04 A301 RMK A01 T00221037  RH  065%=      5-min Rain = 0
KTR1 171000Z 31006KT 02/M04 A301 RMK A01 T00221037  RH  065%=      5-min Rain = 0
KTR1 171001Z 31006KT 02/M04 A301 RMK A01 T00221037  RH  065%=      5-min Rain = 0
KTR1 171002Z 32006KT 02/M04 A301 RMK A01 T00211037  RH  065%=      5-min Rain = 0
KTR1 171003Z 32007KT 02/M04 A301 RMK A01 T00201037  RH  066%=      5-min Rain = 0
KTR1 171004Z 31007KT 02/M04 A301 RMK A01 T00201037  RH  066%=      5-min Rain = 0
KTR1 171005Z 31007KT 02/M04 A301 RMK A01 T00201037  RH  066%=      5-min Rain = 0
KTR1 171006Z 31007KT 02/M04 A301 RMK A01 T00201037  RH  066%=      5-min Rain = 0
KTR1 171007Z 31007KT 02/M04 A301 RMK A01 T00201037  RH  066%=      5-min Rain = 0
KTR1 171008Z 31008KT 02/M04 A301 RMK A01 T00191037  RH  066%=      5-min Rain = 0
KTR1 171009Z 32008KT 02/M04 A301 RMK A01 T00191037  RH  067%=      5-min Rain = 0
KTR1 171010Z 31007KT 02/M04 A301 RMK A01 T00201036  RH  066%=      5-min Rain = 0
KTR1 171011Z 31008KT 02/M04 A301 RMK A01 T00191036  RH  067%=      5-min Rain = 0
KTR1 171012Z 31007KT 02/M04 A301 RMK A01 T00191036  RH  067%=      5-min Rain = 0
KTR1 171013Z 31007KT 02/M04 A301 RMK A01 T00191036  RH  067%=      5-min Rain = 0
KTR1 171014Z 32007KT 02/M04 A301 RMK A01 T00181036  RH  067%=      5-min Rain = 0
KTR1 171015Z 31007KT 02/M04 A301 RMK A01 T00181036  RH  067%=      5-min Rain = 0
KTR1 171016Z 31008KT 02/M04 A301 RMK A01 T00191036  RH  067%=      5-min Rain = 0
KTR1 171017Z 31007KT 02/M04 A301 RMK A01 T00191036  RH  067%=      5-min Rain = 0
KTR1 171018Z 32007KT 02/M04 A301 RMK A01 T00191036  RH  067%=      5-min Rain = 0
KTR1 171019Z 31008KT 02/M04 A301 RMK A01 T00191036  RH  067%=      5-min Rain = 0
KTR1 171020Z 31008KT 02/M04 A301 RMK A01 T00191036  RH  067%=      5-min Rain = 0
KTR1 171021Z 31007KT 02/M04 A301 RMK A01 T00191036  RH  067%=      5-min Rain = 0
KTR1 171022Z 31007KT 02/M04 A301 RMK A01 T00191036  RH  067%=      5-min Rain = 0
KTR1 171023Z 32008KT 02/M04 A301 RMK A01 T00191036  RH  067%=      5-min Rain = 0
KTR1 171024Z 31007KT 02/M04 A301 RMK A01 T00191036  RH  067%=      5-min Rain = 0
KTR1 171025Z 31007KT 02/M04 A301 RMK A01 T00191036  RH  067%=      5-min Rain = 0
KTR1 171026Z 31007KT 02/M04 A301 RMK A01 T00191036  RH  067%=      5-min Rain = 0
KTR1 171027Z 31007KT 02/M04 A301 RMK A01 T00191036  RH  067%=      5-min Rain = 0
KTR1 171028Z 31007KT 02/M04 A301 RMK A01 T00191036  RH  067%=      5-min Rain = 0
KTR1 171029Z 32006KT 02/M04 A301 RMK A01 T00191036  RH  067%=      5-min Rain = 0
KTR1 171030Z 32006KT 02/M04 A3011 RMK A01 T00191036  RH  067%=      5-min Rain = 0
KTR1 171031Z 31006KT 02/M04 A3011 RMK A01 T00191036  RH  067%=      5-min Rain = 0
KTR1 171032Z 31006KT 02/M04 A3011 RMK A01 T00191036  RH  067%=      5-min Rain = 0
KTR1 171033Z 32005KT 02/M04 A3011 RMK A01 T00181036  RH  067%=      5-min Rain = 0
KTR1 171034Z 31006KT 02/M04 A3011 RMK A01 T00181036  RH  067%=      5-min Rain = 0
KTR1 171035Z 31005KT 02/M04 A3011 RMK A01 T00181036  RH  067%=      5-min Rain = 0
KTR1 171036Z 31005KT 02/M04 A3011 RMK A01 T00181036  RH  067%=      5-min Rain = 0
KTR1 171037Z 31005KT 02/M04 A3011 RMK A01 T00171037  RH  067%=      5-min Rain = 0
KTR1 171038Z 31005KT 02/M04 A3011 RMK A01 T00171037  RH  067%=      5-min Rain = 0
KTR1 171039Z 31005KT 02/M04 A3011 RMK A01 T00171038  RH  067%=      5-min Rain = 0
KTR1 171040Z 31005KT 02/M04 A3011 RMK A01 T00161038  RH  067%=      5-min Rain = 0
KTR1 171041Z 31005KT 02/M04 A3011 RMK A01 T00151038  RH  068%=      5-min Rain = 0
KTR1 171042Z 31005KT 02/M04 A3011 RMK A01 T00151038  RH  067%=      5-min Rain = 0
KTR1 171043Z 31005KT 02/M04 A3011 RMK A01 T00161038  RH  067%=      5-min Rain = 0
KTR1 171044Z 31005KT 02/M04 A3011 RMK A01 T00161039  RH  067%=      5-min Rain = 0
KTR1 171045Z 31006KT 02/M04 A3011 RMK A01 T00151039  RH  067%=      5-min Rain = 0
KTR1 171046Z 31006KT 02/M04 A3011 RMK A01 T00151039  RH  067%=      5-min Rain = 0
KTR1 171047Z 31006KT 02/M04 A3011 RMK A01 T00151039  RH  067%=      5-min Rain = 0
KTR1 171048Z 31006KT 02/M04 A3011 RMK A01 T00151038  RH  068%=      5-min Rain = 0
KTR1 171049Z 31006KT 02/M04 A3011 RMK A01 T00151038  RH  067%=      5-min Rain = 0
KTR1 171050Z 31006KT 02/M04 A3011 RMK A01 T00161038  RH  067%=      5-min Rain = 0
KTR1 171051Z 31006KT 02/M04 A3011 RMK A01 T00161038  RH  067%=      5-min Rain = 0
KTR1 171052Z 31006KT 02/M04 A3011 RMK A01 T00161039  RH  067%=      5-min Rain = 0
KTR1 171053Z 31006KT 02/M04 A3011 RMK A01 T00161039  RH  067%=      5-min Rain = 0
KTR1 171054Z 31006KT 02/M04 A3011 RMK A01 T00171039  RH  067%=      5-min Rain = 0
KTR1 171055Z 31007KT 02/M04 A3011 RMK A01 T00161039  RH  067%=      5-min Rain = 0
KTR1 171056Z 31007KT 02/M04 A3011 RMK A01 T00151039  RH  067%=      5-min Rain = 0
KTR1 171057Z 31006KT 02/M04 A3011 RMK A01 T00161039  RH  067%=      5-min Rain = 0
KTR1 171058Z 31006KT 02/M04 A3011 RMK A01 T00171039  RH  067%=      5-min Rain = 0
KTR1 171059Z 31006KT 02/M04 A3011 RMK A01 T00171039  RH  067%=      5-min Rain = 0
KTR1 171100Z 31006KT 02/M04 A3011 RMK A01 T00171039  RH  067%=      5-min Rain = 0
KTR1 171101Z 30006KT 02/M04 A3011 RMK A01 T00171039  RH  067%=      5-min Rain = 0
KTR1 171102Z 31006KT 02/M04 A3011 RMK A01 T00161039  RH  067%=      5-min Rain = 0
KTR1 171103Z 31006KT 02/M04 A3011 RMK A01 T00161038  RH  067%=      5-min Rain = 0
KTR1 171104Z 31005KT 02/M04 A3011 RMK A01 T00161038  RH  067%=      5-min Rain = 0
KTR1 171105Z 31006KT 02/M04 A3011 RMK A01 T00161038  RH  067%=      5-min Rain = 0
KTR1 171106Z 31006KT 02/M04 A3011 RMK A01 T00171038  RH  067%=      5-min Rain = 0
KTR1 171107Z 31006KT 02/M04 A3011 RMK A01 T00161038  RH  067%=      5-min Rain = 0
KTR1 171108Z 31005KT 02/M04 A3011 RMK A01 T00161038  RH  067%=      5-min Rain = 0
KTR1 171109Z 31006KT 02/M04 A3011 RMK A01 T00151038  RH  067%=      5-min Rain = 0
KTR1 171110Z 31006KT 02/M04 A3011 RMK A01 T00151038  RH  068%=      5-min Rain = 0
KTR1 171111Z 31006KT 01/M04 A3011 RMK A01 T00141039  RH  068%=      5-min Rain = 0
KTR1 171112Z 31006KT 01/M04 A3011 RMK A01 T00141038  RH  068%=      5-min Rain = 0
KTR1 171113Z 31006KT 01/M04 A3011 RMK A01 T00131038  RH  069%=      5-min Rain = 0
KTR1 171114Z 32006KT 01/M04 A3011 RMK A01 T00131038  RH  069%=      5-min Rain = 0
KTR1 171115Z 31007KT 01/M04 A3011 RMK A01 T00131038  RH  069%=      5-min Rain = 0
KTR1 171116Z 32006KT 01/M04 A3011 RMK A01 T00131038  RH  069%=      5-min Rain = 0
KTR1 171117Z 32007KT 01/M04 A3011 RMK A01 T00131038  RH  069%=      5-min Rain = 0
KTR1 171118Z 32007KT 01/M04 A3011 RMK A01 T00141038  RH  069%=      5-min Rain = 0
KTR1 171119Z 32007KT 01/M04 A3011 RMK A01 T00141038  RH  069%=      5-min Rain = 0
KTR1 171120Z 31007KT 01/M04 A3011 RMK A01 T00141038  RH  068%=      5-min Rain = 0
KTR1 171121Z 32007KT 02/M04 A3011 RMK A01 T00151038  RH  068%=      5-min Rain = 0
KTR1 171122Z 31007KT 02/M04 A3011 RMK A01 T00151038  RH  068%=      5-min Rain = 0
KTR1 171123Z 31007KT 01/M04 A3011 RMK A01 T00141038  RH  068%=      5-min Rain = 0
KTR1 171124Z 31007KT 01/M04 A3011 RMK A01 T00131038  RH  069%=      5-min Rain = 0
KTR1 171125Z 32007KT 01/M04 A3011 RMK A01 T00131038  RH  069%=      5-min Rain = 0
KTR1 171126Z 31008KT 01/M04 A3011 RMK A01 T00131038  RH  069%=      5-min Rain = 0
KTR1 171127Z 31008KT 01/M04 A3011 RMK A01 T00131038  RH  069%=      5-min Rain = 0
KTR1 171128Z 31007KT 01/M04 A3011 RMK A01 T00131038  RH  069%=      5-min Rain = 0
KTR1 171129Z 31007KT 01/M04 A3011 RMK A01 T00121038  RH  069%=      5-min Rain = 0
KTR1 171130Z 31007KT 01/M04 A3011 RMK A01 T00121038  RH  069%=      5-min Rain = 0
KTR1 171131Z 32008KT 01/M04 A3011 RMK A01 T00121038  RH  070%=      5-min Rain = 0
KTR1 171132Z 31008KT 01/M04 A3012 RMK A01 T00121038  RH  069%=      5-min Rain = 0
KTR1 171133Z 31007KT 01/M04 A3012 RMK A01 T00131038  RH  069%=      5-min Rain = 0
KTR1 171134Z 31007KT 01/M04 A3012 RMK A01 T00131038  RH  069%=      5-min Rain = 0
KTR1 171135Z 31007KT 01/M04 A3012 RMK A01 T00131038  RH  069%=      5-min Rain = 0
KTR1 171136Z 31007KT 01/M04 A3012 RMK A01 T00131038  RH  069%=      5-min Rain = 0
KTR1 171137Z 31007KT 01/M04 A3012 RMK A01 T00131038  RH  069%=      5-min Rain = 0
KTR1 171138Z 31008KT 01/M04 A3012 RMK A01 T00131038  RH  069%=      5-min Rain = 0
KTR1 171139Z 31007KT 01/M04 A3012 RMK A01 T00131038  RH  069%=      5-min Rain = 0
KTR1 171140Z 31007KT 01/M04 A3012 RMK A01 T00131038  RH  069%=      5-min Rain = 0
KTR1 171141Z 31007KT 01/M04 A3012 RMK A01 T00131038  RH  069%=      5-min Rain = 0
KTR1 171142Z 31007KT 01/M04 A3012 RMK A01 T00131037  RH  069%=      5-min Rain = 0
KTR1 171143Z 31007KT 01/M04 A3012 RMK A01 T00121038  RH  069%=      5-min Rain = 0
KTR1 171144Z 31007KT 01/M04 A3012 RMK A01 T00121037  RH  069%=      5-min Rain = 0
KTR1 171145Z 31007KT 01/M04 A3012 RMK A01 T00111038  RH  070%=      5-min Rain = 0
KTR1 171146Z 31007KT 01/M04 A3012 RMK A01 T00111037  RH  070%=      5-min Rain = 0
KTR1 171147Z 31007KT 01/M04 A3012 RMK A01 T00111038  RH  070%=      5-min Rain = 0
KTR1 171148Z 31007KT 01/M04 A3012 RMK A01 T00111037  RH  070%=      5-min Rain = 0
KTR1 171149Z 31006KT 01/M04 A3012 RMK A01 T00101037  RH  071%=      5-min Rain = 0
KTR1 171150Z 31006KT 01/M04 A3012 RMK A01 T00101038  RH  071%=      5-min Rain = 0
KTR1 171151Z 31006KT 01/M04 A3012 RMK A01 T00101037  RH  071%=      5-min Rain = 0
KTR1 171152Z 31007KT 01/M04 A3012 RMK A01 T00101037  RH  071%=      5-min Rain = 0
KTR1 171153Z 31007KT 01/M04 A3012 RMK A01 T00091037  RH  071%=      5-min Rain = 0
KTR1 171154Z 31007KT 01/M04 A3012 RMK A01 T00101037  RH  071%=      5-min Rain = 0
KTR1 171155Z 31007KT 01/M04 A3012 RMK A01 T00091037  RH  071%=      5-min Rain = 0
KTR1 171156Z 31007KT 01/M04 A3012 RMK A01 T00091037  RH  071%=      5-min Rain = 0
KTR1 171157Z 31007KT 01/M04 A3012 RMK A01 T00091037  RH  071%=      5-min Rain = 0
KTR1 171158Z 31007KT 01/M04 A3012 RMK A01 T00091037  RH  071%=      5-min Rain = 0
KTR1 171159Z 31007KT 01/M04 A3012 RMK A01 T00091037  RH  071%=      5-min Rain = 0
KTR1 171200Z 31007KT 01/M04 A3012 RMK A01 T00091037  RH  071%=      5-min Rain = 0
KTR1 171201Z 31007KT 01/M04 A3012 RMK A01 T00081038  RH  071%=      5-min Rain = 0
KTR1 171202Z 31007KT 01/M04 A3012 RMK A01 T00081037  RH  071%=      5-min Rain = 0
KTR1 171203Z 30007KT 01/M04 A3012 RMK A01 T00081038  RH  071%=      5-min Rain = 0
KTR1 171204Z 31007KT 01/M04 A3012 RMK A01 T00091037  RH  071%=      5-min Rain = 0
KTR1 171205Z 31007KT 01/M04 A3012 RMK A01 T00081037  RH  071%=      5-min Rain = 0
KTR1 171206Z 31007KT 01/M04 A3012 RMK A01 T00091037  RH  071%=      5-min Rain = 0
KTR1 171207Z 31007KT 01/M04 A3012 RMK A01 T00081038  RH  072%=      5-min Rain = 0
KTR1 171208Z 31007KT 01/M04 A3013 RMK A01 T00081037  RH  072%=      5-min Rain = 0
KTR1 171209Z 31007KT 01/M04 A3013 RMK A01 T00081037  RH  072%=      5-min Rain = 0
KTR1 171210Z 31007KT 01/M04 A3013 RMK A01 T00081038  RH  071%=      5-min Rain = 0
KTR1 171211Z 31007KT 01/M04 A3013 RMK A01 T00081038  RH  071%=      5-min Rain = 0
KTR1 171212Z 31007KT 01/M04 A3013 RMK A01 T00081038  RH  072%=      5-min Rain = 0
KTR1 171213Z 31007KT 01/M04 A3013 RMK A01 T00081037  RH  072%=      5-min Rain = 0
KTR1 171214Z 31007KT 01/M04 A3013 RMK A01 T00081038  RH  072%=      5-min Rain = 0
KTR1 171215Z 31007KT 01/M04 A3013 RMK A01 T00081037  RH  071%=      5-min Rain = 0
KTR1 171216Z 31007KT 01/M04 A3013 RMK A01 T00081038  RH  071%=      5-min Rain = 0
KTR1 171217Z 31007KT 01/M04 A3013 RMK A01 T00091037  RH  071%=      5-min Rain = 0
KTR1 171218Z 31007KT 01/M04 A3013 RMK A01 T00091037  RH  071%=      5-min Rain = 0
KTR1 171219Z 31006KT 01/M04 A3013 RMK A01 T00081037  RH  072%=      5-min Rain = 0
KTR1 171220Z 31006KT 01/M04 A3013 RMK A01 T00081037  RH  072%=      5-min Rain = 0
KTR1 171221Z 31006KT 01/M04 A3013 RMK A01 T00081037  RH  072%=      5-min Rain = 0
KTR1 171222Z 31007KT 01/M04 A3013 RMK A01 T00081037  RH  072%=      5-min Rain = 0
KTR1 171223Z 31006KT 01/M04 A3013 RMK A01 T00081037  RH  072%=      5-min Rain = 0
KTR1 171224Z 31007KT 01/M04 A3014 RMK A01 T00081037  RH  072%=      5-min Rain = 0
KTR1 171225Z 31007KT 01/M04 A3014 RMK A01 T00081038  RH  072%=      5-min Rain = 0
KTR1 171226Z 31007KT 01/M04 A3014 RMK A01 T00081038  RH  072%=      5-min Rain = 0
KTR1 171227Z 31007KT 01/M04 A3014 RMK A01 T00081037  RH  072%=      5-min Rain = 0
KTR1 171228Z 31007KT 01/M04 A3014 RMK A01 T00081038  RH  071%=      5-min Rain = 0
KTR1 171229Z 31006KT 01/M04 A3014 RMK A01 T00081037  RH  072%=      5-min Rain = 0
KTR1 171230Z 31006KT 01/M04 A3014 RMK A01 T00081037  RH  072%=      5-min Rain = 0
KTR1 171231Z 31007KT 01/M04 A3014 RMK A01 T00081037  RH  072%=      5-min Rain = 0
KTR1 171232Z 31007KT 01/M04 A3014 RMK A01 T00071037  RH  072%=      5-min Rain = 0
KTR1 171233Z 31007KT 01/M04 A3014 RMK A01 T00071037  RH  072%=      5-min Rain = 0
KTR1 171234Z 31007KT 01/M04 A3014 RMK A01 T00071037  RH  072%=      5-min Rain = 0
KTR1 171235Z 31008KT 01/M04 A3014 RMK A01 T00071037  RH  072%=      5-min Rain = 0
KTR1 171236Z 31008KT 01/M04 A3014 RMK A01 T00071037  RH  072%=      5-min Rain = 0
KTR1 171237Z 31008KT 01/M04 A3014 RMK A01 T00071037  RH  072%=      5-min Rain = 0
KTR1 171238Z 31008KT 01/M04 A3014 RMK A01 T00071037  RH  072%=      5-min Rain = 0
KTR1 171239Z 31008KT 01/M04 A3014 RMK A01 T00071037  RH  072%=      5-min Rain = 0
KTR1 171240Z 31007KT 01/M04 A3014 RMK A01 T00071037  RH  072%=      5-min Rain = 0
KTR1 171241Z 31007KT 01/M04 A3014 RMK A01 T00071037  RH  072%=      5-min Rain = 0
KTR1 171242Z 31007KT 01/M04 A3014 RMK A01 T00081037  RH  072%=      5-min Rain = 0
KTR1 171243Z 31007KT 01/M04 A3014 RMK A01 T00081037  RH  072%=      5-min Rain = 0
KTR1 171244Z 31007KT 01/M04 A3014 RMK A01 T00081036  RH  072%=      5-min Rain = 0
KTR1 171245Z 31007KT 01/M04 A3014 RMK A01 T00081037  RH  072%=      5-min Rain = 0
KTR1 171246Z 31007KT 01/M04 A3014 RMK A01 T00081037  RH  072%=      5-min Rain = 0
KTR1 171247Z 31007KT 01/M04 A3014 RMK A01 T00081037  RH  072%=      5-min Rain = 0
KTR1 171248Z 31007KT 01/M04 A3014 RMK A01 T00081037  RH  072%=      5-min Rain = 0
KTR1 171249Z 31007KT 01/M04 A3015 RMK A01 T00081037  RH  072%=      5-min Rain = 0
KTR1 171250Z 31007KT 01/M04 A3015 RMK A01 T00071037  RH  072%=      5-min Rain = 0
KTR1 171251Z 31007KT 01/M04 A3015 RMK A01 T00071037  RH  072%=      5-min Rain = 0
KTR1 171252Z 31007KT 01/M04 A3015 RMK A01 T00071037  RH  072%=      5-min Rain = 0
KTR1 171253Z 31007KT 01/M04 A3015 RMK A01 T00071037  RH  072%=      5-min Rain = 0
KTR1 171254Z 31007KT 01/M04 A3015 RMK A01 T00071037  RH  072%=      5-min Rain = 0
KTR1 171255Z 31007KT 01/M04 A3015 RMK A01 T00071037  RH  072%=      5-min Rain = 0
KTR1 171256Z 31007KT 01/M04 A3015 RMK A01 T00081037  RH  072%=      5-min Rain = 0
KTR1 171257Z 31007KT 01/M04 A3015 RMK A01 T00081037  RH  072%=      5-min Rain = 0
KTR1 171258Z 31007KT 01/M04 A3015 RMK A01 T00081037  RH  072%=      5-min Rain = 0
KTR1 171259Z 31007KT 01/M04 A3015 RMK A01 T00071037  RH  072%=      5-min Rain = 0
KTR1 171300Z 30007KT 01/M04 A3015 RMK A01 T00071037  RH  072%=      5-min Rain = 0
KTR1 171301Z 30007KT 01/M04 A3015 RMK A01 T00071037  RH  072%=      5-min Rain = 0
KTR1 171302Z 30006KT 01/M04 A3015 RMK A01 T00071037  RH  073%=      5-min Rain = 0
KTR1 171303Z 30006KT 01/M04 A3015 RMK A01 T00071037  RH  072%=      5-min Rain = 0
KTR1 171304Z 30007KT 01/M04 A3015 RMK A01 T00071037  RH  072%=      5-min Rain = 0
KTR1 171305Z 30007KT 01/M04 A3015 RMK A01 T00071037  RH  073%=      5-min Rain = 0
KTR1 171306Z 30007KT 01/M04 A3015 RMK A01 T00071037  RH  073%=      5-min Rain = 0
KTR1 171307Z 30007KT 01/M04 A3015 RMK A01 T00071037  RH  072%=      5-min Rain = 0
KTR1 171308Z 30007KT 01/M04 A3015 RMK A01 T00071037  RH  073%=      5-min Rain = 0
KTR1 171309Z 30007KT 01/M04 A3016 RMK A01 T00071037  RH  073%=      5-min Rain = 0
KTR1 171310Z 30007KT 01/M04 A3016 RMK A01 T00071037  RH  073%=      5-min Rain = 0
KTR1 171311Z 30007KT 01/M04 A3016 RMK A01 T00081036  RH  072%=      5-min Rain = 0
KTR1 171312Z 30007KT 01/M04 A3016 RMK A01 T00081036  RH  072%=      5-min Rain = 0
KTR1 171313Z 30007KT 01/M04 A3016 RMK A01 T00071037  RH  072%=      5-min Rain = 0
KTR1 171314Z 30007KT 01/M04 A3016 RMK A01 T00081037  RH  072%=      5-min Rain = 0
KTR1 171315Z 30007KT 01/M04 A3016 RMK A01 T00081037  RH  072%=      5-min Rain = 0
KTR1 171316Z 30007KT 01/M04 A3016 RMK A01 T00081037  RH  072%=      5-min Rain = 0
KTR1 171317Z 30007KT 01/M04 A3016 RMK A01 T00081037  RH  072%=      5-min Rain = 0
KTR1 171318Z 30007KT 01/M04 A3016 RMK A01 T00081037  RH  072%=      5-min Rain = 0
KTR1 171319Z 30007KT 01/M04 A3016 RMK A01 T00071037  RH  072%=      5-min Rain = 0
KTR1 171320Z 30007KT 01/M04 A3016 RMK A01 T00071037  RH  072%=      5-min Rain = 0
KTR1 171321Z 30007KT 01/M04 A3016 RMK A01 T00071037  RH  072%=      5-min Rain = 0
KTR1 171322Z 30007KT 01/M04 A3016 RMK A01 T00061038  RH  072%=      5-min Rain = 0
KTR1 171323Z 30007KT 01/M04 A3016 RMK A01 T00061038  RH  072%=      5-min Rain = 0
KTR1 171324Z 30007KT 01/M04 A3016 RMK A01 T00061038  RH  072%=      5-min Rain = 0
KTR1 171325Z 30008KT 01/M04 A3016 RMK A01 T00061038  RH  072%=      5-min Rain = 0
KTR1 171326Z 30008KT 01/M04 A3016 RMK A01 T00061038  RH  072%=      5-min Rain = 0
KTR1 171327Z 30007KT 01/M04 A3016 RMK A01 T00061038  RH  072%=      5-min Rain = 0
KTR1 171328Z 30007KT 01/M04 A3016 RMK A01 T00071038  RH  072%=      5-min Rain = 0
KTR1 171329Z 30007KT 01/M04 A3016 RMK A01 T00071038  RH  072%=      5-min Rain = 0
KTR1 171330Z 30007KT 01/M04 A3016 RMK A01 T00071038  RH  072%=      5-min Rain = 0
KTR1 171331Z 30008KT 01/M04 A3016 RMK A01 T00071038  RH  072%=      5-min Rain = 0
KTR1 171332Z 30007KT 01/M04 A3016 RMK A01 T00071038  RH  072%=      5-min Rain = 0
KTR1 171333Z 30007KT 01/M04 A3016 RMK A01 T00071038  RH  072%=      5-min Rain = 0
KTR1 171334Z 31007KT 01/M04 A3016 RMK A01 T00071038  RH  072%=      5-min Rain = 0
KTR1 171335Z 31007KT 01/M04 A3016 RMK A01 T00071038  RH  072%=      5-min Rain = 0
KTR1 171336Z 30007KT 01/M04 A3016 RMK A01 T00071037  RH  072%=      5-min Rain = 0
KTR1 171337Z 31007KT 01/M04 A3016 RMK A01 T00071037  RH  072%=      5-min Rain = 0
KTR1 171338Z 31007KT 01/M04 A3016 RMK A01 T00071038  RH  072%=      5-min Rain = 0
KTR1 171339Z 30007KT 01/M04 A3016 RMK A01 T00071038  RH  072%=      5-min Rain = 0
KTR1 171340Z 30007KT 01/M04 A3016 RMK A01 T00071038  RH  072%=      5-min Rain = 0
KTR1 171341Z 31007KT 01/M04 A3016 RMK A01 T00081038  RH  071%=      5-min Rain = 0
KTR1 171342Z 31007KT 01/M04 A3016 RMK A01 T00071038  RH  071%=      5-min Rain = 0
KTR1 171343Z 31007KT 01/M04 A3016 RMK A01 T00071038  RH  072%=      5-min Rain = 0
KTR1 171344Z 31007KT 01/M04 A3016 RMK A01 T00071039  RH  072%=      5-min Rain = 0
KTR1 171345Z 31006KT 01/M04 A3016 RMK A01 T00061039  RH  072%=      5-min Rain = 0
KTR1 171346Z 31006KT 01/M04 A3016 RMK A01 T00051039  RH  072%=      5-min Rain = 0
KTR1 171347Z 31006KT 01/M04 A3016 RMK A01 T00051039  RH  072%=      5-min Rain = 0
KTR1 171348Z 31006KT 01/M04 A3016 RMK A01 T00051039  RH  072%=      5-min Rain = 0
KTR1 171349Z 31006KT 01/M04 A3016 RMK A01 T00061038  RH  072%=      5-min Rain = 0
KTR1 171350Z 31006KT 01/M04 A3016 RMK A01 T00061038  RH  072%=      5-min Rain = 0
KTR1 171351Z 31007KT 01/M04 A3016 RMK A01 T00051038  RH  073%=      5-min Rain = 0
KTR1 171352Z 31006KT 01/M04 A3016 RMK A01 T00051038  RH  073%=      5-min Rain = 0
KTR1 171353Z 31006KT 01/M04 A3016 RMK A01 T00061038  RH  072%=      5-min Rain = 0
KTR1 171354Z 31006KT 01/M04 A3016 RMK A01 T00061038  RH  072%=      5-min Rain = 0
KTR1 171355Z 31006KT 01/M04 A3016 RMK A01 T00061038  RH  072%=      5-min Rain = 0
KTR1 171356Z 31006KT 01/M04 A3016 RMK A01 T00061038  RH  072%=      5-min Rain = 0
KTR1 171357Z 31006KT 01/M04 A3016 RMK A01 T00071038  RH  072%=      5-min Rain = 0
KTR1 171358Z 31006KT 01/M04 A3016 RMK A01 T00071038  RH  072%=      5-min Rain = 0
KTR1 171359Z 31006KT 01/M04 A3016 RMK A01 T00081038  RH  072%=      5-min Rain = 0
KTR1 171400Z 31006KT 01/M04 A3016 RMK A01 T00081038  RH  071%=      5-min Rain = 0
KTR1 171401Z 31006KT 01/M04 A3016 RMK A01 T00081038  RH  071%=      5-min Rain = 0
KTR1 171402Z 31006KT 01/M04 A3016 RMK A01 T00091037  RH  071%=      5-min Rain = 0
KTR1 171403Z 31006KT 01/M04 A3016 RMK A01 T00091037  RH  071%=      5-min Rain = 0
KTR1 171404Z 31006KT 01/M04 A3016 RMK A01 T00081038  RH  071%=      5-min Rain = 0
KTR1 171405Z 31007KT 01/M04 A3017 RMK A01 T00091038  RH  071%=      5-min Rain = 0
KTR1 171406Z 31007KT 01/M04 A3017 RMK A01 T00101038  RH  071%=      5-min Rain = 0
KTR1 171407Z 31006KT 01/M04 A3017 RMK A01 T00101037  RH  071%=      5-min Rain = 0
KTR1 171408Z 31007KT 01/M04 A3017 RMK A01 T00101037  RH  071%=      5-min Rain = 0
KTR1 171409Z 31007KT 01/M04 A3017 RMK A01 T00101036  RH  071%=      5-min Rain = 0
KTR1 171410Z 31007KT 01/M04 A3017 RMK A01 T00101037  RH  071%=      5-min Rain = 0
KTR1 171411Z 31007KT 01/M04 A3017 RMK A01 T00101036  RH  071%=      5-min Rain = 0
KTR1 171412Z 31007KT 01/M04 A3017 RMK A01 T00101036  RH  071%=      5-min Rain = 0
KTR1 171413Z 32007KT 01/M04 A3017 RMK A01 T00101036  RH  071%=      5-min Rain = 0
KTR1 171414Z 32007KT 01/M04 A3017 RMK A01 T00111036  RH  071%=      5-min Rain = 0
KTR1 171415Z 32007KT 01/M04 A3017 RMK A01 T00121035  RH  071%=      5-min Rain = 0
KTR1 171416Z 32007KT 01/M04 A3017 RMK A01 T00131035  RH  070%=      5-min Rain = 0
KTR1 171417Z 32007KT 01/M04 A3017 RMK A01 T00141035  RH  070%=      5-min Rain = 0
KTR1 171418Z 32007KT 01/M04 A3017 RMK A01 T00141035  RH  070%=      5-min Rain = 0
KTR1 171419Z 32008KT 02/M04 A3017 RMK A01 T00151035  RH  070%=      5-min Rain = 0
KTR1 171420Z 32008KT 02/M04 A3017 RMK A01 T00151035  RH  069%=      5-min Rain = 0
KTR1 171421Z 32008KT 02/M04 A3017 RMK A01 T00161035  RH  069%=      5-min Rain = 0
KTR1 171422Z 32008KT 02/M03 A3017 RMK A01 T00171034  RH  069%=      5-min Rain = 0
KTR1 171423Z 32008KT 02/M03 A3017 RMK A01 T00171034  RH  069%=      5-min Rain = 0
KTR1 171424Z 32008KT 02/M03 A3017 RMK A01 T00171033  RH  069%=      5-min Rain = 0
KTR1 171425Z 32008KT 02/M03 A3017 RMK A01 T00181032  RH  070%=      5-min Rain = 0
KTR1 171426Z 32008KT 02/M03 A3017 RMK A01 T00171032  RH  070%=      5-min Rain = 0
KTR1 171427Z 32008KT 02/M03 A3017 RMK A01 T00181032  RH  069%=      5-min Rain = 0
KTR1 171428Z 32008KT 02/M03 A3017 RMK A01 T00181032  RH  069%=      5-min Rain = 0
KTR1 171429Z 32007KT 02/M03 A3017 RMK A01 T00191032  RH  069%=      5-min Rain = 0
KTR1 171430Z 32007KT 02/M03 A3017 RMK A01 T00191031  RH  069%=      5-min Rain = 0
KTR1 171431Z 32009KT 02/M03 A3018 RMK A01 T00191031  RH  069%=      5-min Rain = 0
KTR1 171432Z 32008KT 02/M03 A3018 RMK A01 T00201032  RH  069%=      5-min Rain = 0
KTR1 171433Z 32009KT 02/M03 A3018 RMK A01 T00201032  RH  068%=      5-min Rain = 0
KTR1 171434Z 32008KT 02/M03 A3018 RMK A01 T00211032  RH  068%=      5-min Rain = 0
KTR1 171435Z 31008KT 02/M03 A3018 RMK A01 T00211031  RH  068%=      5-min Rain = 0
KTR1 171436Z 32007KT 02/M03 A3018 RMK A01 T00211031  RH  069%=      5-min Rain = 0
KTR1 171437Z 31007KT 02/M03 A3018 RMK A01 T00211030  RH  069%=      5-min Rain = 0
KTR1 171438Z 32008KT 02/M03 A3018 RMK A01 T00211031  RH  068%=      5-min Rain = 0
KTR1 171439Z 32008KT 02/M03 A3018 RMK A01 T00221031  RH  068%=      5-min Rain = 0
KTR1 171440Z 32007KT 02/M03 A3018 RMK A01 T00221031  RH  068%=      5-min Rain = 0
KTR1 171441Z 32008KT 02/M03 A3018 RMK A01 T00231031  RH  068%=      5-min Rain = 0
KTR1 171442Z 31007KT 02/M03 A3018 RMK A01 T00231031  RH  067%=      5-min Rain = 0
KTR1 171443Z 32007KT 02/M03 A3018 RMK A01 T00241031  RH  067%=      5-min Rain = 0
KTR1 171444Z 32007KT 02/M03 A3018 RMK A01 T00241030  RH  067%=      5-min Rain = 0
KTR1 171445Z 32006KT 02/M03 A3018 RMK A01 T00241029  RH  068%=      5-min Rain = 0
KTR1 171446Z 32006KT 03/M03 A3018 RMK A01 T00251028  RH  068%=      5-min Rain = 0
KTR1 171447Z 32007KT 03/M03 A3018 RMK A01 T00251029  RH  068%=      5-min Rain = 0
KTR1 171448Z 31007KT 03/M03 A3018 RMK A01 T00261029  RH  067%=      5-min Rain = 0
KTR1 171449Z 32006KT 03/M03 A3018 RMK A01 T00261030  RH  067%=      5-min Rain = 0
KTR1 171450Z 31007KT 03/M03 A3018 RMK A01 T00271029  RH  067%=      5-min Rain = 0
KTR1 171451Z 31007KT 03/M03 A3018 RMK A01 T00271029  RH  067%=      5-min Rain = 0
KTR1 171452Z 31006KT 03/M03 A3018 RMK A01 T00271029  RH  067%=      5-min Rain = 0
KTR1 171453Z 32007KT 03/M03 A3018 RMK A01 T00271028  RH  067%=      5-min Rain = 0
KTR1 171454Z 32007KT 03/M03 A3018 RMK A01 T00281030  RH  066%=      5-min Rain = 0
KTR1 171455Z 31007KT 03/M03 A3018 RMK A01 T00281028  RH  066%=      5-min Rain = 0
KTR1 171456Z 31006KT 03/M03 A3018 RMK A01 T00291029  RH  066%=      5-min Rain = 0
KTR1 171457Z 32007KT 03/M03 A3018 RMK A01 T00291027  RH  066%=      5-min Rain = 0
KTR1 171458Z 31006KT 03/M03 A3018 RMK A01 T00301027  RH  066%=      5-min Rain = 0
KTR1 171459Z 31007KT 03/M03 A3018 RMK A01 T00301027  RH  066%=      5-min Rain = 0
KTR1 171500Z 31006KT 03/M03 A3018 RMK A01 T00311028  RH  065%=      5-min Rain = 0
KTR1 171501Z 31007KT 03/M03 A3018 RMK A01 T00311025  RH  066%=      5-min Rain = 0
KTR1 171502Z 31007KT 03/M03 A3018 RMK A01 T00321026  RH  066%=      5-min Rain = 0
KTR1 171503Z 32007KT 03/M03 A3018 RMK A01 T00321027  RH  065%=      5-min Rain = 0
KTR1 171504Z 32007KT 03/M03 A3018 RMK A01 T00321027  RH  065%=      5-min Rain = 0
KTR1 171505Z 31007KT 03/M03 A3018 RMK A01 T00331027  RH  065%=      5-min Rain = 0
KTR1 171506Z 31007KT 03/M03 A3018 RMK A01 T00331026  RH  065%=      5-min Rain = 0
KTR1 171507Z 32007KT 03/M03 A3018 RMK A01 T00341025  RH  066%=      5-min Rain = 0
KTR1 171508Z 32007KT 03/M03 A3018 RMK A01 T00341027  RH  064%=      5-min Rain = 0
KTR1 171509Z 32007KT 03/M03 A3018 RMK A01 T00341027  RH  064%=      5-min Rain = 0
KTR1 171510Z 32007KT 04/M03 A3018 RMK A01 T00351028  RH  063%=      5-min Rain = 0
KTR1 171511Z 32007KT 04/M03 A3018 RMK A01 T00351028  RH  064%=      5-min Rain = 0
KTR1 171512Z 32007KT 04/M03 A3018 RMK A01 T00351027  RH  064%=      5-min Rain = 0
KTR1 171513Z 31007KT 04/M03 A3018 RMK A01 T00351028  RH  064%=      5-min Rain = 0
KTR1 171514Z 32007KT 04/M03 A3018 RMK A01 T00351028  RH  063%=      5-min Rain = 0
KTR1 171515Z 32008KT 04/M03 A3019 RMK A01 T00351028  RH  063%=      5-min Rain = 0
KTR1 171516Z 32007KT 04/M03 A3019 RMK A01 T00361028  RH  063%=      5-min Rain = 0
KTR1 171517Z 32007KT 04/M03 A3019 RMK A01 T00361027  RH  064%=      5-min Rain = 0
KTR1 171518Z 32007KT 04/M03 A3019 RMK A01 T00361027  RH  063%=      5-min Rain = 0
KTR1 171519Z 32007KT 04/M03 A3019 RMK A01 T00371027  RH  063%=      5-min Rain = 0
KTR1 171520Z 32007KT 04/M03 A3019 RMK A01 T00371025  RH  064%=      5-min Rain = 0
KTR1 171521Z 32006KT 04/M03 A3019 RMK A01 T00371026  RH  063%=      5-min Rain = 0
KTR1 171522Z 32006KT 04/M02 A3019 RMK A01 T00381024  RH  064%=      5-min Rain = 0
KTR1 171523Z 32006KT 04/M03 A3019 RMK A01 T00381025  RH  063%=      5-min Rain = 0
KTR1 171524Z 32007KT 04/M03 A3019 RMK A01 T00381025  RH  064%=      5-min Rain = 0
KTR1 171525Z 32008KT 04/M03 A302 RMK A01 T00381026  RH  063%=      5-min Rain = 0
KTR1 171526Z 32007KT 04/M03 A302 RMK A01 T00381026  RH  063%=      5-min Rain = 0
KTR1 171527Z 32008KT 04/M02 A302 RMK A01 T00381024  RH  064%=      5-min Rain = 0
KTR1 171528Z 32008KT 04/M03 A302 RMK A01 T00391025  RH  063%=      5-min Rain = 0
KTR1 171529Z 32007KT 04/M03 A302 RMK A01 T00391026  RH  063%=      5-min Rain = 0
KTR1 171530Z 32006KT 04/M02 A302 RMK A01 T00391023  RH  064%=      5-min Rain = 0
KTR1 171531Z 32008KT 04/M02 A302 RMK A01 T00391022  RH  065%=      5-min Rain = 0
KTR1 171532Z 32008KT 04/M02 A302 RMK A01 T00391023  RH  064%=      5-min Rain = 0
KTR1 171533Z 32008KT 04/M02 A302 RMK A01 T00391024  RH  063%=      5-min Rain = 0
KTR1 171534Z 32009KT 04/M02 A302 RMK A01 T00391024  RH  063%=      5-min Rain = 0
KTR1 171535Z 32008KT 04/M03 A302 RMK A01 T00391025  RH  063%=      5-min Rain = 0
KTR1 171536Z 32008KT 04/M02 A302 RMK A01 T00401023  RH  063%=      5-min Rain = 0
KTR1 171537Z 32007KT 04/M02 A302 RMK A01 T00391022  RH  064%=      5-min Rain = 0
KTR1 171538Z 32007KT 04/M02 A302 RMK A01 T00401021  RH  064%=      5-min Rain = 0
KTR1 171539Z 32008KT 04/M02 A302 RMK A01 T00401022  RH  064%=      5-min Rain = 0
KTR1 171540Z 32007KT 04/M02 A302 RMK A01 T00401022  RH  064%=      5-min Rain = 0
KTR1 171541Z 32008KT 04/M02 A302 RMK A01 T00411021  RH  064%=      5-min Rain = 0
KTR1 171542Z 32008KT 04/M02 A3021 RMK A01 T00411023  RH  063%=      5-min Rain = 0
KTR1 171543Z 32009KT 04/M02 A3021 RMK A01 T00421022  RH  063%=      5-min Rain = 0
KTR1 171544Z 32008KT 04/M02 A3021 RMK A01 T00421022  RH  063%=      5-min Rain = 0
KTR1 171545Z 32009KT 04/M02 A3021 RMK A01 T00421022  RH  063%=      5-min Rain = 0
KTR1 171546Z 32008KT 04/M02 A3021 RMK A01 T00431023  RH  062%=      5-min Rain = 0
KTR1 171547Z 32008KT 04/M02 A3021 RMK A01 T00421023  RH  062%=      5-min Rain = 0
KTR1 171548Z 32008KT 04/M02 A302 RMK A01 T00431023  RH  062%=      5-min Rain = 0
KTR1 171549Z 32008KT 04/M02 A302 RMK A01 T00431022  RH  063%=      5-min Rain = 0
KTR1 171550Z 32008KT 04/M02 A302 RMK A01 T00441023  RH  062%=      5-min Rain = 0
KTR1 171551Z 32007KT 04/M02 A302 RMK A01 T00441022  RH  062%=      5-min Rain = 0
KTR1 171552Z 33008KT 05/M02 A302 RMK A01 T00451022  RH  062%=      5-min Rain = 0
KTR1 171553Z 32009KT 05/M02 A3021 RMK A01 T00451021  RH  062%=      5-min Rain = 0
KTR1 171554Z 32009KT 05/M02 A3021 RMK A01 T00461024  RH  061%=      5-min Rain = 0
KTR1 171555Z 32008KT 05/M02 A3021 RMK A01 T00461024  RH  060%=      5-min Rain = 0
KTR1 171556Z 32008KT 05/M03 A3021 RMK A01 T00461025  RH  060%=      5-min Rain = 0
KTR1 171557Z 32008KT 05/M02 A3021 RMK A01 T00461024  RH  061%=      5-min Rain = 0
KTR1 171558Z 32008KT 05/M02 A3021 RMK A01 T00461024  RH  060%=      5-min Rain = 0
KTR1 171559Z 32007KT 05/M02 A3021 RMK A01 T00461022  RH  062%=      5-min Rain = 0
KTR1 171600Z 32006KT 05/M02 A3021 RMK A01 T00461019  RH  063%=      5-min Rain = 0
KTR1 171601Z 32008KT 05/M02 A3021 RMK A01 T00471020  RH  062%=      5-min Rain = 0
KTR1 171602Z 32008KT 05/M02 A3021 RMK A01 T00481024  RH  060%=      5-min Rain = 0
KTR1 171603Z 32007KT 05/M02 A3021 RMK A01 T00481024  RH  060%=      5-min Rain = 0
KTR1 171604Z 32007KT 05/M02 A3021 RMK A01 T00481023  RH  060%=      5-min Rain = 0
KTR1 171605Z 32007KT 05/M02 A3021 RMK A01 T00481024  RH  059%=      5-min Rain = 0
KTR1 171606Z 32007KT 05/M02 A3021 RMK A01 T00491023  RH  060%=      5-min Rain = 0
KTR1 171607Z 32008KT 05/M02 A3021 RMK A01 T00501023  RH  060%=      5-min Rain = 0
KTR1 171608Z 32008KT 05/M02 A3021 RMK A01 T00501024  RH  058%=      5-min Rain = 0
KTR1 171609Z 32007KT 05/M02 A3021 RMK A01 T00511022  RH  059%=      5-min Rain = 0
KTR1 171610Z 32007KT 05/M02 A302 RMK A01 T00521023  RH  058%=      5-min Rain = 0
KTR1 171611Z 31006KT 05/M02 A302 RMK A01 T00521022  RH  059%=      5-min Rain = 0
KTR1 171612Z 31006KT 05/M02 A302 RMK A01 T00531017  RH  061%=      5-min Rain = 0
KTR1 171613Z 32007KT 05/M02 A302 RMK A01 T00541021  RH  059%=      5-min Rain = 0
KTR1 171614Z 31008KT 05/M03 A302 RMK A01 T00541025  RH  057%=      5-min Rain = 0
KTR1 171615Z 32007KT 05/M03 A302 RMK A01 T00531026  RH  057%=      5-min Rain = 0
KTR1 171616Z 32006KT 05/M02 A3021 RMK A01 T00531022  RH  058%=      5-min Rain = 0
KTR1 171617Z 32006KT 06/M02 A3021 RMK A01 T00551018  RH  059%=      5-min Rain = 0
KTR1 171618Z 31007KT 06/M02 A3021 RMK A01 T00561022  RH  057%=      5-min Rain = 0
KTR1 171619Z 32007KT 06/M02 A3021 RMK A01 T00571021  RH  057%=      5-min Rain = 0
KTR1 171620Z 32006KT 06/M02 A3021 RMK A01 T00571020  RH  057%=      5-min Rain = 0
KTR1 171621Z 31005KT 06/M02 A3021 RMK A01 T00581019  RH  057%=      5-min Rain = 0
KTR1 171622Z 32006KT 06/M02 A3021 RMK A01 T00591019  RH  057%=      5-min Rain = 0
KTR1 171623Z 32006KT 06/M02 A3021 RMK A01 T00601016  RH  058%=      5-min Rain = 0
KTR1 171624Z 31005KT 06/M02 A3021 RMK A01 T00611019  RH  056%=      5-min Rain = 0
KTR1 171625Z 31006KT 06/M02 A3021 RMK A01 T00621020  RH  056%=      5-min Rain = 0
KTR1 171626Z 31007KT 06/M02 A3021 RMK A01 T00621020  RH  056%=      5-min Rain = 0
KTR1 171627Z 31006KT 06/M02 A3021 RMK A01 T00621021  RH  055%=      5-min Rain = 0
KTR1 171628Z 31006KT 06/M02 A3021 RMK A01 T00621021  RH  055%=      5-min Rain = 0
KTR1 171629Z 32005KT 06/M02 A3021 RMK A01 T00621020  RH  055%=      5-min Rain = 0
KTR1 171630Z 32006KT 06/M02 A3021 RMK A01 T00641018  RH  056%=      5-min Rain = 0
KTR1 171631Z 31006KT 07/M02 A3021 RMK A01 T00651020  RH  055%=      5-min Rain = 0
KTR1 171632Z 32006KT 06/M02 A3021 RMK A01 T00641022  RH  054%=      5-min Rain = 0
KTR1 171633Z 31006KT 07/M02 A3021 RMK A01 T00651020  RH  055%=      5-min Rain = 0
KTR1 171634Z 32006KT 07/M02 A3021 RMK A01 T00661021  RH  054%=      5-min Rain = 0
KTR1 171635Z 32007KT 07/M02 A3021 RMK A01 T00671021  RH  054%=      5-min Rain = 0
KTR1 171636Z 32007KT 07/M02 A3021 RMK A01 T00671023  RH  052%=      5-min Rain = 0
KTR1 171637Z 32007KT 07/M02 A3021 RMK A01 T00681022  RH  052%=      5-min Rain = 0
KTR1 171638Z 32007KT 07/M02 A3021 RMK A01 T00681024  RH  052%=      5-min Rain = 0
KTR1 171639Z 32007KT 07/M02 A3021 RMK A01 T00691022  RH  052%=      5-min Rain = 0
KTR1 171640Z 32007KT 07/M02 A3021 RMK A01 T00691023  RH  052%=      5-min Rain = 0
KTR1 171641Z 32007KT 07/M02 A3021 RMK A01 T00691024  RH  052%=      5-min Rain = 0
KTR1 171642Z 32007KT 07/M03 A3021 RMK A01 T00691025  RH  051%=      5-min Rain = 0
KTR1 171643Z 31007KT 07/M02 A3021 RMK A01 T00691024  RH  052%=      5-min Rain = 0
KTR1 171644Z 32007KT 07/M02 A3021 RMK A01 T00691023  RH  052%=      5-min Rain = 0
KTR1 171645Z 32007KT 07/M02 A3021 RMK A01 T00701024  RH  051%=      5-min Rain = 0
KTR1 171646Z 32007KT 07/M02 A3021 RMK A01 T00711024  RH  051%=      5-min Rain = 0
KTR1 171647Z 32007KT 07/M02 A3021 RMK A01 T00711024  RH  051%=      5-min Rain = 0
KTR1 171648Z 33006KT 07/M02 A3021 RMK A01 T00721021  RH  051%=      5-min Rain = 0
KTR1 171649Z 32007KT 07/M02 A3021 RMK A01 T00731023  RH  051%=      5-min Rain = 0
KTR1 171650Z 32007KT 07/M02 A3021 RMK A01 T00731024  RH  050%=      5-min Rain = 0
KTR1 171651Z 32007KT 07/M03 A3021 RMK A01 T00741025  RH  049%=      5-min Rain = 0
KTR1 171652Z 32008KT 07/M03 A3021 RMK A01 T00741025  RH  049%=      5-min Rain = 0
KTR1 171653Z 32007KT 07/M03 A3021 RMK A01 T00741027  RH  049%=      5-min Rain = 0
KTR1 171654Z 32007KT 07/M02 A3021 RMK A01 T00741024  RH  050%=      5-min Rain = 0
KTR1 171655Z 33006KT 07/M03 A3021 RMK A01 T00741025  RH  049%=      5-min Rain = 0
KTR1 171656Z 32006KT 07/M02 A3021 RMK A01 T00741023  RH  050%=      5-min Rain = 0
KTR1 171657Z 32007KT 08/M02 A3021 RMK A01 T00751024  RH  049%=      5-min Rain = 0
KTR1 171658Z 32007KT 08/M03 A3021 RMK A01 T00751025  RH  049%=      5-min Rain = 0
KTR1 171659Z 32006KT 08/M02 A3021 RMK A01 T00761024  RH  049%=      5-min Rain = 0
KTR1 171700Z 32006KT 08/M02 A3021 RMK A01 T00761024  RH  049%=      5-min Rain = 0
KTR1 171701Z 32007KT 08/M02 A3021 RMK A01 T00761024  RH  049%=      5-min Rain = 0
KTR1 171702Z 32006KT 08/M03 A3021 RMK A01 T00761025  RH  049%=      5-min Rain = 0
KTR1 171703Z 32006KT 08/M03 A3021 RMK A01 T00771025  RH  049%=      5-min Rain = 0
KTR1 171704Z 31006KT 08/M02 A3021 RMK A01 T00771024  RH  049%=      5-min Rain = 0
KTR1 171705Z 32006KT 08/M02 A3021 RMK A01 T00771024  RH  049%=      5-min Rain = 0
KTR1 171706Z 32006KT 08/M02 A3021 RMK A01 T00771023  RH  049%=      5-min Rain = 0
KTR1 171707Z 32006KT 08/M02 A3021 RMK A01 T00781024  RH  049%=      5-min Rain = 0
KTR1 171708Z 31006KT 08/M02 A3021 RMK A01 T00791020  RH  050%=      5-min Rain = 0
KTR1 171709Z 32006KT 08/M02 A3021 RMK A01 T00791023  RH  048%=      5-min Rain = 0
KTR1 171710Z 33006KT 08/M02 A3021 RMK A01 T00791024  RH  048%=      5-min Rain = 0
KTR1 171711Z 33006KT 08/M03 A3021 RMK A01 T00791026  RH  047%=      5-min Rain = 0
KTR1 171712Z 32006KT 08/M02 A3021 RMK A01 T00801024  RH  048%=      5-min Rain = 0
KTR1 171713Z 33006KT 08/M02 A3021 RMK A01 T00811019  RH  049%=      5-min Rain = 0
KTR1 171714Z 33007KT 08/M02 A3021 RMK A01 T00811024  RH  047%=      5-min Rain = 0
KTR1 171715Z 33006KT 08/M03 A3021 RMK A01 T00811026  RH  047%=      5-min Rain = 0
KTR1 171716Z 33006KT 08/M02 A3021 RMK A01 T00821022  RH  048%=      5-min Rain = 0
KTR1 171717Z 33006KT 08/M02 A3021 RMK A01 T00831022  RH  048%=      5-min Rain = 0
KTR1 171718Z 32006KT 08/M02 A3021 RMK A01 T00841020  RH  048%=      5-min Rain = 0
KTR1 171719Z 32006KT 08/M02 A3021 RMK A01 T00841021  RH  048%=      5-min Rain = 0
KTR1 171720Z 32007KT 08/M02 A3021 RMK A01 T00841019  RH  048%=      5-min Rain = 0
KTR1 171721Z 32008KT 09/M02 A3021 RMK A01 T00851023  RH  047%=      5-min Rain = 0
KTR1 171722Z 32007KT 09/M03 A3021 RMK A01 T00851026  RH  046%=      5-min Rain = 0
KTR1 171723Z 32007KT 09/M02 A3021 RMK A01 T00851024  RH  046%=      5-min Rain = 0
KTR1 171724Z 31007KT 08/M02 A3021 RMK A01 T00841023  RH  047%=      5-min Rain = 0
KTR1 171725Z 31006KT 09/M02 A302 RMK A01 T00851023  RH  046%=      5-min Rain = 0
KTR1 171726Z 32006KT 09/M03 A3021 RMK A01 T00851025  RH  046%=      5-min Rain = 0
KTR1 171727Z 32006KT 09/M02 A3021 RMK A01 T00861023  RH  046%=      5-min Rain = 0
KTR1 171728Z 32006KT 09/M02 A302 RMK A01 T00881018  RH  047%=      5-min Rain = 0
KTR1 171729Z 32007KT 09/M02 A302 RMK A01 T00891023  RH  045%=      5-min Rain = 0
KTR1 171730Z 32007KT 09/M02 A302 RMK A01 T00891024  RH  045%=      5-min Rain = 0
KTR1 171731Z 31008KT 09/M02 A302 RMK A01 T00901024  RH  045%=      5-min Rain = 0
KTR1 171732Z 32008KT 09/M03 A302 RMK A01 T00901026  RH  044%=      5-min Rain = 0
KTR1 171733Z 33008KT 09/M03 A302 RMK A01 T00901029  RH  043%=      5-min Rain = 0
KTR1 171734Z 32007KT 09/M03 A302 RMK A01 T00911027  RH  043%=      5-min Rain = 0
KTR1 171735Z 33007KT 09/M03 A302 RMK A01 T00911030  RH  042%=      5-min Rain = 0
KTR1 171736Z 33007KT 09/M03 A302 RMK A01 T00911030  RH  043%=      5-min Rain = 0
KTR1 171737Z 33006KT 09/M02 A302 RMK A01 T00921023  RH  044%=      5-min Rain = 0
KTR1 171738Z 32005KT 10/M02 A302 RMK A01 T00951021  RH  044%=      5-min Rain = 0
KTR1 171739Z 32007KT 10/M02 A302 RMK A01 T00961021  RH  044%=      5-min Rain = 0
KTR1 171740Z 32007KT 10/M03 A302 RMK A01 T00951030  RH  041%=      5-min Rain = 0
KTR1 171741Z 32008KT 09/M03 A302 RMK A01 T00941029  RH  042%=      5-min Rain = 0
KTR1 171742Z 32008KT 09/M03 A302 RMK A01 T00931028  RH  042%=      5-min Rain = 0
KTR1 171743Z 34007KT 09/M03 A302 RMK A01 T00931028  RH  043%=      5-min Rain = 0
KTR1 171744Z 33007KT 09/M03 A302 RMK A01 T00931028  RH  043%=      5-min Rain = 0
KTR1 171745Z 33006KT 09/M03 A302 RMK A01 T00931028  RH  042%=      5-min Rain = 0
KTR1 171746Z 33006KT 09/M03 A302 RMK A01 T00921029  RH  042%=      5-min Rain = 0
KTR1 171747Z 32007KT 09/M03 A302 RMK A01 T00931027  RH  043%=      5-min Rain = 0
KTR1 171748Z 31006KT 09/M03 A302 RMK A01 T00931030  RH  042%=      5-min Rain = 0
KTR1 171749Z 32005KT 09/M03 A302 RMK A01 T00931028  RH  043%=      5-min Rain = 0
KTR1 171750Z 32007KT 09/M03 A3019 RMK A01 T00931025  RH  043%=      5-min Rain = 0
KTR1 171751Z 32007KT 10/M03 A3019 RMK A01 T00951026  RH  042%=      5-min Rain = 0
KTR1 171752Z 32006KT 10/M03 A3019 RMK A01 T00961030  RH  041%=      5-min Rain = 0
KTR1 171753Z 32006KT 10/M03 A3019 RMK A01 T00951029  RH  041%=      5-min Rain = 0
KTR1 171754Z 32006KT 10/M03 A3019 RMK A01 T00961031  RH  041%=      5-min Rain = 0
KTR1 171755Z 32006KT 10/M03 A3019 RMK A01 T00951033  RH  040%=      5-min Rain = 0
KTR1 171756Z 31005KT 09/M03 A3019 RMK A01 T00941032  RH  041%=      5-min Rain = 0
KTR1 171757Z 32005KT 10/M03 A3019 RMK A01 T00951030  RH  042%=      5-min Rain = 0
KTR1 171758Z 33005KT 10/M03 A3019 RMK A01 T00961033  RH  040%=      5-min Rain = 0
KTR1 171759Z 31006KT 10/M03 A3019 RMK A01 T00951034  RH  040%=      5-min Rain = 0
KTR1 171800Z 32006KT 10/M03 A3018 RMK A01 T00971028  RH  041%=      5-min Rain = 0
KTR1 171801Z 33006KT 10/M03 A3018 RMK A01 T00991033  RH  039%=      5-min Rain = 0
KTR1 171802Z 32007KT 10/M04 A3018 RMK A01 T00981036  RH  039%=      5-min Rain = 0
KTR1 171803Z 34007KT 10/M03 A3018 RMK A01 T00981034  RH  039%=      5-min Rain = 0
KTR1 171804Z 34006KT 10/M04 A3018 RMK A01 T00991037  RH  038%=      5-min Rain = 0
KTR1 171805Z 34006KT 10/M04 A3018 RMK A01 T00991038  RH  038%=      5-min Rain = 0
KTR1 171806Z 33006KT 10/M03 A3018 RMK A01 T00991034  RH  039%=      5-min Rain = 0
KTR1 171807Z 33004KT 10/M03 A3018 RMK A01 T00991031  RH  040%=      5-min Rain = 0
KTR1 171808Z 31005KT 10/M03 A3018 RMK A01 T01001031  RH  040%=      5-min Rain = 0
KTR1 171809Z 31007KT 10/M03 A3018 RMK A01 T00991033  RH  039%=      5-min Rain = 0
KTR1 171810Z 32006KT 10/M04 A3018 RMK A01 T00991035  RH  039%=      5-min Rain = 0
KTR1 171811Z 32007KT 10/M03 A3017 RMK A01 T00991034  RH  039%=      5-min Rain = 0
KTR1 171812Z 34007KT 10/M03 A3017 RMK A01 T01011031  RH  039%=      5-min Rain = 0
KTR1 171813Z 35008KT 10/M04 A3017 RMK A01 T01021038  RH  037%=      5-min Rain = 0
KTR1 171814Z 35006KT 10/M04 A3017 RMK A01 T01011038  RH  037%=      5-min Rain = 0
KTR1 171815Z 34007KT 10/M04 A3017 RMK A01 T01001039  RH  037%=      5-min Rain = 0
KTR1 171816Z 34009KT 10/M04 A3017 RMK A01 T01011035  RH  038%=      5-min Rain = 0
KTR1 171817Z 35006KT 10/M04 A3017 RMK A01 T01021039  RH  037%=      5-min Rain = 0
KTR1 171818Z 35008KT 10/M03 A3017 RMK A01 T01021034  RH  038%=      5-min Rain = 0
KTR1 171819Z 34008KT 10/M04 A3017 RMK A01 T01031036  RH  037%=      5-min Rain = 0
KTR1 171820Z 33008KT 10/M04 A3017 RMK A01 T01021039  RH  037%=      5-min Rain = 0
KTR1 171821Z 34010KT 10/M04 A3017 RMK A01 T01021036  RH  038%=      5-min Rain = 0
KTR1 171822Z 34011KT 10/M03 A3017 RMK A01 T01031034  RH  038%=      5-min Rain = 0
KTR1 171823Z 35009KT 10/M04 A3017 RMK A01 T01031037  RH  037%=      5-min Rain = 0
KTR1 171824Z 34008KT 10/M04 A3017 RMK A01 T01021040  RH  037%=      5-min Rain = 0
KTR1 171825Z 33007KT 10/M04 A3017 RMK A01 T01011038  RH  037%=      5-min Rain = 0
KTR1 171826Z 35007KT 10/M04 A3017 RMK A01 T01001036  RH  038%=      5-min Rain = 0
KTR1 171827Z 01007KT 10/M04 A3017 RMK A01 T01001036  RH  038%=      5-min Rain = 0
KTR1 171828Z 00008KT 10/M03 A3016 RMK A01 T01011033  RH  039%=      5-min Rain = 0
KTR1 171829Z 00007KT 10/M03 A3016 RMK A01 T01021034  RH  038%=      5-min Rain = 0
KTR1 171830Z 35007KT 10/M03 A3016 RMK A01 T01021027  RH  040%=      5-min Rain = 0
KTR1 171831Z 35007KT 10/M03 A3016 RMK A01 T01041032  RH  039%=      5-min Rain = 0
KTR1 171832Z 00006KT 10/M03 A3016 RMK A01 T01041032  RH  038%=      5-min Rain = 0
KTR1 171833Z 35005KT 10/M03 A3016 RMK A01 T01021034  RH  038%=      5-min Rain = 0
KTR1 171834Z 35005KT 10/M03 A3016 RMK A01 T01031028  RH  040%=      5-min Rain = 0
KTR1 171835Z 35006KT 10/M03 A3016 RMK A01 T01041031  RH  039%=      5-min Rain = 0
KTR1 171836Z 35006KT 10/M03 A3016 RMK A01 T01041031  RH  039%=      5-min Rain = 0
KTR1 171837Z 35005KT 10/M03 A3016 RMK A01 T01041031  RH  039%=      5-min Rain = 0
KTR1 171838Z 35005KT 10/M03 A3016 RMK A01 T01041029  RH  039%=      5-min Rain = 0
KTR1 171839Z 00005KT 11/M03 A3016 RMK A01 T01051030  RH  039%=      5-min Rain = 0
KTR1 171840Z 36006KT 10/M03 A3016 RMK A01 T01041032  RH  038%=      5-min Rain = 0
KTR1 171841Z 35004KT 10/M03 A3016 RMK A01 T01021034  RH  038%=      5-min Rain = 0
KTR1 171842Z 33005KT 10/M03 A3016 RMK A01 T01021029  RH  040%=      5-min Rain = 0
KTR1 171843Z 33008KT 10/M03 A3016 RMK A01 T01031031  RH  039%=      5-min Rain = 0
KTR1 171844Z 33007KT 10/M03 A3016 RMK A01 T01031031  RH  039%=      5-min Rain = 0
KTR1 171845Z 35006KT 10/M03 A3016 RMK A01 T01031031  RH  039%=      5-min Rain = 0
KTR1 171846Z 00006KT 11/M03 A3016 RMK A01 T01051029  RH  039%=      5-min Rain = 0
KTR1 171847Z 33006KT 11/M03 A3016 RMK A01 T01051034  RH  038%=      5-min Rain = 0
KTR1 171848Z 34007KT 11/M03 A3016 RMK A01 T01061034  RH  037%=      5-min Rain = 0
KTR1 171849Z 34005KT 11/M04 A3016 RMK A01 T01061036  RH  037%=      5-min Rain = 0
KTR1 171850Z 34005KT 11/M04 A3015 RMK A01 T01061035  RH  037%=      5-min Rain = 0
KTR1 171851Z 33006KT 11/M04 A3015 RMK A01 T01061037  RH  036%=      5-min Rain = 0
KTR1 171852Z 34005KT 11/M04 A3015 RMK A01 T01061036  RH  037%=      5-min Rain = 0
KTR1 171853Z 34006KT 11/M03 A3015 RMK A01 T01061034  RH  037%=      5-min Rain = 0
KTR1 171854Z 35005KT 11/M03 A3015 RMK A01 T01061032  RH  038%=      5-min Rain = 0
KTR1 171855Z 35005KT 11/M03 A3015 RMK A01 T01081032  RH  037%=      5-min Rain = 0
KTR1 171856Z 35004KT 11/M03 A3015 RMK A01 T01081034  RH  037%=      5-min Rain = 0
KTR1 171857Z 35004KT 11/M04 A3015 RMK A01 T01081035  RH  036%=      5-min Rain = 0
KTR1 171858Z 35003KT 11/M04 A3015 RMK A01 T01081038  RH  036%=      5-min Rain = 0
KTR1 171859Z 34003KT 11/M04 A3015 RMK A01 T01071037  RH  036%=      5-min Rain = 0
KTR1 171900Z 33004KT 11/M04 A3014 RMK A01 T01081037  RH  036%=      5-min Rain = 0
KTR1 171901Z 34004KT 11/M04 A3014 RMK A01 T01081035  RH  036%=      5-min Rain = 0
KTR1 171902Z 33006KT 11/M03 A3014 RMK A01 T01101034  RH  036%=      5-min Rain = 0
KTR1 171903Z 32005KT 11/M03 A3014 RMK A01 T01101034  RH  036%=      5-min Rain = 0
KTR1 171904Z 35006KT 11/M03 A3014 RMK A01 T01101034  RH  036%=      5-min Rain = 0
KTR1 171905Z 35006KT 11/M04 A3014 RMK A01 T01111035  RH  036%=      5-min Rain = 0
KTR1 171906Z 01007KT 11/M04 A3015 RMK A01 T01101035  RH  036%=      5-min Rain = 0
KTR1 171907Z 36005KT 11/M03 A3015 RMK A01 T01111033  RH  036%=      5-min Rain = 0
KTR1 171908Z 01005KT 11/M03 A3015 RMK A01 T01131033  RH  036%=      5-min Rain = 0
KTR1 171909Z 02006KT 11/M04 A3015 RMK A01 T01121035  RH  036%=      5-min Rain = 0
KTR1 171910Z 01004KT 11/M04 A3014 RMK A01 T01111036  RH  036%=      5-min Rain = 0
KTR1 171911Z 01006KT 11/M03 A3014 RMK A01 T01111034  RH  036%=      5-min Rain = 0
KTR1 171912Z 00005KT 11/M04 A3014 RMK A01 T01101035  RH  036%=      5-min Rain = 0
KTR1 171913Z 35004KT 11/M04 A3014 RMK A01 T01101035  RH  036%=      5-min Rain = 0
KTR1 171914Z 33004KT 11/M04 A3014 RMK A01 T01101035  RH  036%=      5-min Rain = 0
KTR1 171915Z 32006KT 11/M04 A3014 RMK A01 T01091039  RH  035%=      5-min Rain = 0
KTR1 171916Z 31005KT 11/M05 A3014 RMK A01 T01091046  RH  033%=      5-min Rain = 0
KTR1 171917Z 31005KT 11/M04 A3014 RMK A01 T01091043  RH  034%=      5-min Rain = 0
KTR1 171918Z 31006KT 11/M04 A3014 RMK A01 T01111041  RH  034%=      5-min Rain = 0
KTR1 171919Z 31007KT 11/M04 A3014 RMK A01 T01111043  RH  034%=      5-min Rain = 0
KTR1 171920Z 32006KT 11/M04 A3014 RMK A01 T01111041  RH  034%=      5-min Rain = 0
KTR1 171921Z 30005KT 11/M03 A3013 RMK A01 T01111034  RH  036%=      5-min Rain = 0
KTR1 171922Z 32007KT 11/M03 A3013 RMK A01 T01121029  RH  037%=      5-min Rain = 0
KTR1 171923Z 31006KT 11/M04 A3013 RMK A01 T01141035  RH  035%=      5-min Rain = 0
KTR1 171924Z 31004KT 11/M04 A3013 RMK A01 T01131037  RH  035%=      5-min Rain = 0
KTR1 171925Z 32004KT 11/M04 A3013 RMK A01 T01121044  RH  033%=      5-min Rain = 0
KTR1 171926Z 34002KT 11/M04 A3013 RMK A01 T01111043  RH  034%=      5-min Rain = 0
KTR1 171927Z 34004KT 11/M03 A3013 RMK A01 T01131034  RH  036%=      5-min Rain = 0
KTR1 171928Z 34006KT 12/M04 A3013 RMK A01 T01151040  RH  033%=      5-min Rain = 0
KTR1 171929Z 01008KT 12/M05 A3013 RMK A01 T01151047  RH  032%=      5-min Rain = 0
KTR1 171930Z 01007KT 12/M05 A3013 RMK A01 T01151048  RH  032%=      5-min Rain = 0
KTR1 171931Z 35007KT 12/M04 A3013 RMK A01 T01161042  RH  033%=      5-min Rain = 0
KTR1 171932Z 35006KT 12/M05 A3013 RMK A01 T01171048  RH  031%=      5-min Rain = 0
KTR1 171933Z 36006KT 12/M05 A3013 RMK A01 T01151049  RH  031%=      5-min Rain = 0
KTR1 171934Z 00006KT 12/M05 A3013 RMK A01 T01151045  RH  032%=      5-min Rain = 0
KTR1 171935Z 36004KT 12/M05 A3013 RMK A01 T01151048  RH  032%=      5-min Rain = 0
KTR1 171936Z 01004KT 12/M05 A3013 RMK A01 T01151046  RH  032%=      5-min Rain = 0
KTR1 171937Z 01004KT 12/M05 A3013 RMK A01 T01151047  RH  032%=      5-min Rain = 0
KTR1 171938Z 02002KT 12/M06 A3013 RMK A01 T01151055  RH  030%=      5-min Rain = 0
KTR1 171939Z 01003KT 12/M05 A3012 RMK A01 T01151051  RH  031%=      5-min Rain = 0
KTR1 171940Z 35005KT 12/M05 A3012 RMK A01 T01151050  RH  031%=      5-min Rain = 0
KTR1 171941Z 34005KT 12/M05 A3012 RMK A01 T01171048  RH  031%=      5-min Rain = 0
KTR1 171942Z 35006KT 12/M05 A3012 RMK A01 T01191048  RH  031%=      5-min Rain = 0
KTR1 171943Z 35007KT 12/M05 A3012 RMK A01 T01191049  RH  031%=      5-min Rain = 0
KTR1 171944Z 35008KT 12/M05 A3012 RMK A01 T01201050  RH  030%=      5-min Rain = 0
KTR1 171945Z 35004KT 12/M05 A3012 RMK A01 T01201045  RH  031%=      5-min Rain = 0
KTR1 171946Z 36006KT 12/M05 A3012 RMK A01 T01221045  RH  031%=      5-min Rain = 0
KTR1 171947Z 34006KT 12/M06 A3012 RMK A01 T01221056  RH  028%=      5-min Rain = 0
KTR1 171948Z 33003KT 12/M06 A3012 RMK A01 T01201060  RH  028%=      5-min Rain = 0
KTR1 171949Z 00005KT 12/M06 A3012 RMK A01 T01181057  RH  029%=      5-min Rain = 0
KTR1 171950Z 36004KT 12/M06 A3012 RMK A01 T01181060  RH  028%=      5-min Rain = 0
KTR1 171951Z 35003KT 12/M06 A3012 RMK A01 T01171060  RH  028%=      5-min Rain = 0
KTR1 171952Z 34004KT 12/M06 A3012 RMK A01 T01171055  RH  030%=      5-min Rain = 0
KTR1 171953Z 34005KT 12/M05 A3012 RMK A01 T01171053  RH  030%=      5-min Rain = 0
KTR1 171954Z 33007KT 12/M05 A3012 RMK A01 T01201054  RH  029%=      5-min Rain = 0
KTR1 171955Z 32007KT 12/M06 A3012 RMK A01 T01221059  RH  028%=      5-min Rain = 0
KTR1 171956Z 32007KT 12/M06 A3012 RMK A01 T01221062  RH  027%=      5-min Rain = 0
KTR1 171957Z 32006KT 12/M07 A3012 RMK A01 T01201067  RH  026%=      5-min Rain = 0
KTR1 171958Z 32005KT 12/M07 A3012 RMK A01 T01191069  RH  026%=      5-min Rain = 0
KTR1 171959Z 33007KT 12/M07 A3012 RMK A01 T01181070  RH  026%=      5-min Rain = 0
KTR1 172000Z 33008KT 12/M07 A3012 RMK A01 T01191072  RH  026%=      5-min Rain = 0
KTR1 172001Z 34007KT 12/M07 A3012 RMK A01 T01191067  RH  027%=      5-min Rain = 0
KTR1 172002Z 35008KT 12/M07 A3012 RMK A01 T01191066  RH  027%=      5-min Rain = 0
KTR1 172003Z 35006KT 12/M06 A3012 RMK A01 T01201061  RH  028%=      5-min Rain = 0
KTR1 172004Z 36006KT 12/M06 A3012 RMK A01 T01211064  RH  027%=      5-min Rain = 0
KTR1 172005Z 00006KT 12/M06 A3012 RMK A01 T01201062  RH  028%=      5-min Rain = 0
KTR1 172006Z 36005KT 12/M06 A3012 RMK A01 T01201064  RH  027%=      5-min Rain = 0
KTR1 172007Z 34004KT 12/M06 A3012 RMK A01 T01191063  RH  028%=      5-min Rain = 0
KTR1 172008Z 02004KT 12/M06 A3012 RMK A01 T01201055  RH  029%=      5-min Rain = 0
KTR1 172009Z 02003KT 12/M06 A3012 RMK A01 T01211055  RH  029%=      5-min Rain = 0
KTR1 172010Z 01005KT 12/M05 A3012 RMK A01 T01231052  RH  029%=      5-min Rain = 0
KTR1 172011Z 02004KT 12/M06 A3012 RMK A01 T01241060  RH  027%=      5-min Rain = 0
KTR1 172012Z 35004KT 12/M06 A3012 RMK A01 T01231059  RH  027%=      5-min Rain = 0
KTR1 172013Z 35007KT 12/M06 A3012 RMK A01 T01231059  RH  028%=      5-min Rain = 0
KTR1 172014Z 32007KT 12/M06 A3012 RMK A01 T01231057  RH  028%=      5-min Rain = 0
KTR1 172015Z 34007KT 12/M06 A3012 RMK A01 T01241058  RH  028%=      5-min Rain = 0
KTR1 172016Z 36005KT 12/M06 A3012 RMK A01 T01221061  RH  027%=      5-min Rain = 0
KTR1 172017Z 02004KT 12/M06 A3012 RMK A01 T01211060  RH  028%=      5-min Rain = 0
KTR1 172018Z 04003KT 12/M06 A3012 RMK A01 T01211060  RH  028%=      5-min Rain = 0
KTR1 172019Z 03003KT 12/M06 A3012 RMK A01 T01211063  RH  027%=      5-min Rain = 0
KTR1 172020Z 36004KT 12/M06 A3012 RMK A01 T01211060  RH  028%=      5-min Rain = 0
KTR1 172021Z 36003KT 12/M05 A3012 RMK A01 T01231054  RH  029%=      5-min Rain = 0
KTR1 172022Z 33004KT 13/M06 A3012 RMK A01 T01251058  RH  027%=      5-min Rain = 0
KTR1 172023Z 33003KT 13/M06 A3011 RMK A01 T01261055  RH  028%=      5-min Rain = 0
KTR1 172024Z 34007KT 13/M06 A3011 RMK A01 T01271059  RH  027%=      5-min Rain = 0
KTR1 172025Z 35009KT 13/M06 A3012 RMK A01 T01281060  RH  026%=      5-min Rain = 0
KTR1 172026Z 36008KT 13/M07 A3011 RMK A01 T01291069  RH  025%=      5-min Rain = 0
KTR1 172027Z 01007KT 13/M07 A3011 RMK A01 T01271073  RH  024%=      5-min Rain = 0
KTR1 172028Z 33008KT 13/M07 A3011 RMK A01 T01251066  RH  026%=      5-min Rain = 0
KTR1 172029Z 31007KT 13/M06 A3011 RMK A01 T01271059  RH  027%=      5-min Rain = 0
KTR1 172030Z 32007KT 13/M06 A3012 RMK A01 T01271061  RH  026%=      5-min Rain = 0
KTR1 172031Z 32006KT 13/M06 A3012 RMK A01 T01261062  RH  026%=      5-min Rain = 0
KTR1 172032Z 33006KT 13/M06 A3012 RMK A01 T01261064  RH  026%=      5-min Rain = 0
KTR1 172033Z 00006KT 13/M06 A3012 RMK A01 T01251060  RH  027%=      5-min Rain = 0
KTR1 172034Z 00007KT 13/M06 A3012 RMK A01 T01271061  RH  027%=      5-min Rain = 0
KTR1 172035Z 01007KT 13/M06 A3012 RMK A01 T01261060  RH  027%=      5-min Rain = 0
KTR1 172036Z 35006KT 13/M06 A3011 RMK A01 T01261063  RH  026%=      5-min Rain = 0
KTR1 172037Z 33005KT 13/M06 A3011 RMK A01 T01261060  RH  027%=      5-min Rain = 0
KTR1 172038Z 33004KT 13/M07 A3011 RMK A01 T01271066  RH  025%=      5-min Rain = 0
KTR1 172039Z 33002KT 13/M07 A3011 RMK A01 T01251068  RH  025%=      5-min Rain = 0
KTR1 172040Z 02003KT 13/M07 A3011 RMK A01 T01251067  RH  026%=      5-min Rain = 0
KTR1 172041Z 03001KT 13/M07 A3011 RMK A01 T01251068  RH  026%=      5-min Rain = 0
KTR1 172042Z 35002KT 13/M06 A3011 RMK A01 T01251062  RH  026%=      5-min Rain = 0
KTR1 172043Z 01004KT 13/M06 A3011 RMK A01 T01281059  RH  027%=      5-min Rain = 0
KTR1 172044Z 36003KT 13/M06 A3011 RMK A01 T01291064  RH  025%=      5-min Rain = 0
KTR1 172045Z 34005KT 13/M06 A3011 RMK A01 T01291061  RH  026%=      5-min Rain = 0
KTR1 172046Z 34005KT 13/M06 A3011 RMK A01 T01301063  RH  025%=      5-min Rain = 0
KTR1 172047Z 34008KT 13/M06 A3011 RMK A01 T01301064  RH  025%=      5-min Rain = 0
KTR1 172048Z 35009KT 13/M07 A3011 RMK A01 T01301067  RH  025%=      5-min Rain = 0
KTR1 172049Z 35006KT 13/M07 A3011 RMK A01 T01281069  RH  025%=      5-min Rain = 0
KTR1 172050Z 01004KT 13/M07 A3011 RMK A01 T01261073  RH  024%=      5-min Rain = 0
KTR1 172051Z 34004KT 13/M07 A3011 RMK A01 T01251068  RH  025%=      5-min Rain = 0
KTR1 172052Z 34003KT 13/M07 A3011 RMK A01 T01261071  RH  025%=      5-min Rain = 0
KTR1 172053Z 00002G8KT 13/M07 A3011 RMK A01 T01261071  RH  025%=      5-min Rain = 0
KTR1 172054Z 01007KT 13/M07 A3011 RMK A01 T01261068  RH  025%=      5-min Rain = 0
KTR1 172055Z 35005KT 13/M07 A3011 RMK A01 T01261065  RH  026%=      5-min Rain = 0
KTR1 172056Z 01004KT 13/M06 A3011 RMK A01 T01271064  RH  026%=      5-min Rain = 0
KTR1 172057Z 02003KT 13/M06 A3011 RMK A01 T01281057  RH  027%=      5-min Rain = 0
KTR1 172058Z 02006KT 13/M06 A3011 RMK A01 T01311060  RH  026%=      5-min Rain = 0
KTR1 172059Z 01006KT 13/M06 A3011 RMK A01 T01301062  RH  026%=      5-min Rain = 0
KTR1 172100Z 34007KT 13/M06 A3011 RMK A01 T01311055  RH  027%=      5-min Rain = 0
KTR1 172101Z 00006KT 13/M06 A3011 RMK A01 T01321060  RH  026%=      5-min Rain = 0
KTR1 172102Z 36007KT 13/M06 A3011 RMK A01 T01311063  RH  026%=      5-min Rain = 0
KTR1 172103Z 02006KT 13/M06 A3011 RMK A01 T01291059  RH  026%=      5-min Rain = 0
KTR1 172104Z 01007KT 13/M06 A3011 RMK A01 T01291064  RH  026%=      5-min Rain = 0
KTR1 172105Z 01006KT 13/M06 A3011 RMK A01 T01271062  RH  026%=      5-min Rain = 0
KTR1 172106Z 01007KT 13/M06 A3011 RMK A01 T01271063  RH  026%=      5-min Rain = 0
KTR1 172107Z 00005KT 13/M07 A3011 RMK A01 T01251070  RH  025%=      5-min Rain = 0
KTR1 172108Z 01004KT 12/M07 A3011 RMK A01 T01241066  RH  026%=      5-min Rain = 0
KTR1 172109Z 02006KT 13/M06 A3011 RMK A01 T01251059  RH  027%=      5-min Rain = 0
KTR1 172110Z 04004KT 13/M07 A3011 RMK A01 T01261066  RH  026%=      5-min Rain = 0
KTR1 172111Z 05003KT 13/M07 A3011 RMK A01 T01261065  RH  026%=      5-min Rain = 0
KTR1 172112Z 06002KT 13/M07 A3011 RMK A01 T01261068  RH  025%=      5-min Rain = 0
KTR1 172113Z 04003KT 13/M07 A3011 RMK A01 T01261067  RH  025%=      5-min Rain = 0
KTR1 172114Z 33002KT 13/M06 A3011 RMK A01 T01281059  RH  027%=      5-min Rain = 0
KTR1 172115Z 28004KT 13/M06 A3011 RMK A01 T01311060  RH  026%=      5-min Rain = 0
KTR1 172116Z 28004KT 13/M06 A3011 RMK A01 T01321061  RH  026%=      5-min Rain = 0
KTR1 172117Z 31005KT 13/M06 A3011 RMK A01 T01321057  RH  026%=      5-min Rain = 0
KTR1 172118Z 33006KT 13/M06 A3011 RMK A01 T01321059  RH  026%=      5-min Rain = 0
KTR1 172119Z 31004KT 13/M06 A3011 RMK A01 T01311064  RH  025%=      5-min Rain = 0
KTR1 172120Z 30003KT 13/M07 A3011 RMK A01 T01291068  RH  025%=      5-min Rain = 0
KTR1 172121Z 31004KT 13/M07 A3011 RMK A01 T01281066  RH  025%=      5-min Rain = 0
KTR1 172122Z 31007KT 13/M06 A3011 RMK A01 T01291059  RH  026%=      5-min Rain = 0
KTR1 172123Z 31007KT 13/M06 A3011 RMK A01 T01301063  RH  026%=      5-min Rain = 0
KTR1 172124Z 31008KT 13/M06 A3011 RMK A01 T01301060  RH  026%=      5-min Rain = 0
KTR1 172125Z 31006KT 13/M06 A3011 RMK A01 T01301059  RH  026%=      5-min Rain = 0
KTR1 172126Z 33005KT 13/M06 A3011 RMK A01 T01301060  RH  026%=      5-min Rain = 0
KTR1 172127Z 33004KT 13/M06 A3011 RMK A01 T01301063  RH  026%=      5-min Rain = 0
KTR1 172128Z 31004KT 13/M06 A3011 RMK A01 T01301063  RH  025%=      5-min Rain = 0
KTR1 172129Z 30005KT 13/M06 A301 RMK A01 T01301061  RH  026%=      5-min Rain = 0
KTR1 172130Z 31004KT 13/M06 A301 RMK A01 T01301062  RH  026%=      5-min Rain = 0
KTR1 172131Z 31007KT 13/M06 A301 RMK A01 T01311058  RH  026%=      5-min Rain = 0
KTR1 172132Z 31004KT 13/M07 A301 RMK A01 T01311068  RH  024%=      5-min Rain = 0
KTR1 172133Z 31003KT 13/M07 A301 RMK A01 T01291066  RH  025%=      5-min Rain = 0
KTR1 172134Z 29002KT 13/M06 A301 RMK A01 T01291063  RH  026%=      5-min Rain = 0
KTR1 172135Z 29001KT 13/M07 A301 RMK A01 T01311065  RH  025%=      5-min Rain = 0
KTR1 172136Z 33002KT 13/M07 A301 RMK A01 T01311065  RH  025%=      5-min Rain = 0
KTR1 172137Z 36002KT 13/M07 A301 RMK A01 T01321066  RH  025%=      5-min Rain = 0
KTR1 172138Z 32002KT 13/M06 A301 RMK A01 T01311062  RH  026%=      5-min Rain = 0
KTR1 172139Z 30002KT 13/M07 A301 RMK A01 T01311065  RH  025%=      5-min Rain = 0
KTR1 172140Z 30005KT 13/M06 A301 RMK A01 T01331058  RH  026%=      5-min Rain = 0
KTR1 172141Z 30008KT 13/M05 A301 RMK A01 T01341054  RH  027%=      5-min Rain = 0
KTR1 172142Z 29006KT 13/M06 A301 RMK A01 T01341059  RH  026%=      5-min Rain = 0
KTR1 172143Z 29006KT 13/M06 A301 RMK A01 T01321060  RH  026%=      5-min Rain = 0
KTR1 172144Z 28004KT 13/M06 A301 RMK A01 T01311063  RH  025%=      5-min Rain = 0
KTR1 172145Z 29005KT 13/M06 A301 RMK A01 T01301061  RH  026%=      5-min Rain = 0
KTR1 172146Z 28003KT 13/M06 A301 RMK A01 T01301062  RH  026%=      5-min Rain = 0
KTR1 172147Z 30003KT 13/M06 A301 RMK A01 T01311059  RH  026%=      5-min Rain = 0
KTR1 172148Z 30003KT 13/M06 A301 RMK A01 T01311060  RH  026%=      5-min Rain = 0
KTR1 172149Z 28003KT 13/M06 A301 RMK A01 T01321058  RH  026%=      5-min Rain = 0
KTR1 172150Z 28002KT 13/M06 A301 RMK A01 T01321064  RH  025%=      5-min Rain = 0
KTR1 172151Z 28003KT 13/M06 A301 RMK A01 T01321063  RH  025%=      5-min Rain = 0
KTR1 172152Z 35005KT 13/M06 A301 RMK A01 T01331056  RH  027%=      5-min Rain = 0
KTR1 172153Z 01003KT 13/M06 A301 RMK A01 T01341057  RH  026%=      5-min Rain = 0
KTR1 172154Z 35003KT 13/M06 A301 RMK A01 T01331064  RH  025%=      5-min Rain = 0
KTR1 172155Z 33005KT 13/M06 A301 RMK A01 T01331057  RH  026%=      5-min Rain = 0
KTR1 172156Z 32006KT 13/M06 A301 RMK A01 T01331056  RH  026%=      5-min Rain = 0
KTR1 172157Z 32006KT 13/M06 A301 RMK A01 T01331055  RH  027%=      5-min Rain = 0
KTR1 172158Z 31006KT 13/M06 A301 RMK A01 T01331058  RH  026%=      5-min Rain = 0
KTR1 172159Z 32005KT 13/M06 A301 RMK A01 T01321063  RH  025%=      5-min Rain = 0
KTR1 172200Z 30004KT 13/M06 A301 RMK A01 T01311060  RH  026%=      5-min Rain = 0
KTR1 172201Z 32004KT 13/M06 A301 RMK A01 T01311059  RH  026%=      5-min Rain = 0
KTR1 172202Z 30005KT 13/M06 A301 RMK A01 T01321055  RH  027%=      5-min Rain = 0
KTR1 172203Z 29005KT 13/M06 A301 RMK A01 T01331055  RH  027%=      5-min Rain = 0
KTR1 172204Z 29006KT 13/M06 A301 RMK A01 T01341057  RH  026%=      5-min Rain = 0
KTR1 172205Z 28005KT 13/M06 A301 RMK A01 T01331060  RH  026%=      5-min Rain = 0
KTR1 172206Z 28004KT 13/M06 A301 RMK A01 T01331057  RH  026%=      5-min Rain = 0
KTR1 172207Z 28005KT 13/M06 A301 RMK A01 T01331055  RH  027%=      5-min Rain = 0
KTR1 172208Z 30006KT 13/M05 A301 RMK A01 T01331054  RH  027%=      5-min Rain = 0
KTR1 172209Z 31005KT 13/M05 A301 RMK A01 T01341052  RH  027%=      5-min Rain = 0
KTR1 172210Z 31004KT 13/M06 A301 RMK A01 T01341061  RH  025%=      5-min Rain = 0
KTR1 172211Z 31004KT 13/M06 A301 RMK A01 T01331062  RH  025%=      5-min Rain = 0
KTR1 172212Z 30004KT 13/M06 A301 RMK A01 T01321059  RH  026%=      5-min Rain = 0
KTR1 172213Z 30003KT 13/M06 A301 RMK A01 T01321060  RH  026%=      5-min Rain = 0
KTR1 172214Z 33004KT 13/M06 A301 RMK A01 T01321057  RH  026%=      5-min Rain = 0
KTR1 172215Z 33003KT 13/M06 A301 RMK A01 T01321063  RH  025%=      5-min Rain = 0
KTR1 172216Z 33003KT 13/M06 A301 RMK A01 T01321063  RH  025%=      5-min Rain = 0
KTR1 172217Z 33003KT 13/M06 A301 RMK A01 T01311063  RH  025%=      5-min Rain = 0
KTR1 172218Z 33002KT 13/M07 A3009 RMK A01 T01311066  RH  025%=      5-min Rain = 0
KTR1 172219Z 34004KT 13/M06 A3009 RMK A01 T01311060  RH  026%=      5-min Rain = 0
KTR1 172220Z 32003KT 13/M06 A3009 RMK A01 T01311064  RH  025%=      5-min Rain = 0
KTR1 172221Z 35002KT 13/M06 A3009 RMK A01 T01311064  RH  025%=      5-min Rain = 0
KTR1 172222Z 00001KT 13/M07 A3009 RMK A01 T01311065  RH  025%=      5-min Rain = 0
KTR1 172223Z 32001KT 13/M06 A3009 RMK A01 T01311060  RH  026%=      5-min Rain = 0
KTR1 172224Z 33003KT 13/M06 A3009 RMK A01 T01321059  RH  026%=      5-min Rain = 0
KTR1 172225Z 33002KT 13/M06 A3009 RMK A01 T01331057  RH  026%=      5-min Rain = 0
KTR1 172226Z 31002KT 13/M06 A3009 RMK A01 T01341055  RH  026%=      5-min Rain = 0
KTR1 172227Z 30004KT 13/M05 A3009 RMK A01 T01341054  RH  027%=      5-min Rain = 0
KTR1 172228Z 29006KT 14/M05 A3009 RMK A01 T01351051  RH  027%=      5-min Rain = 0
KTR1 172229Z 30007KT 14/M05 A3009 RMK A01 T01361051  RH  027%=      5-min Rain = 0
KTR1 172230Z 30006KT 14/M06 A3009 RMK A01 T01351055  RH  026%=      5-min Rain = 0
KTR1 172231Z 29006KT 13/M06 A3009 RMK A01 T01331058  RH  026%=      5-min Rain = 0
KTR1 172232Z 30007KT 13/M05 A3009 RMK A01 T01321054  RH  027%=      5-min Rain = 0
KTR1 172233Z 30005KT 13/M05 A3009 RMK A01 T01321053  RH  027%=      5-min Rain = 0
KTR1 172234Z 30004KT 13/M06 A3009 RMK A01 T01321055  RH  027%=      5-min Rain = 0
KTR1 172235Z 31004KT 13/M06 A3009 RMK A01 T01321062  RH  025%=      5-min Rain = 0
KTR1 172236Z 31005KT 13/M06 A3009 RMK A01 T01321060  RH  026%=      5-min Rain = 0
KTR1 172237Z 30005KT 13/M06 A3009 RMK A01 T01311060  RH  026%=      5-min Rain = 0
KTR1 172238Z 32004KT 13/M06 A3009 RMK A01 T01311056  RH  027%=      5-min Rain = 0
KTR1 172239Z 33004KT 13/M06 A3009 RMK A01 T01311057  RH  026%=      5-min Rain = 0
KTR1 172240Z 33005KT 13/M06 A3009 RMK A01 T01311057  RH  027%=      5-min Rain = 0
KTR1 172241Z 33005KT 13/M06 A3009 RMK A01 T01311060  RH  026%=      5-min Rain = 0
KTR1 172242Z 33005KT 13/M06 A3009 RMK A01 T01311057  RH  026%=      5-min Rain = 0
KTR1 172243Z 34005KT 13/M06 A3009 RMK A01 T01311060  RH  026%=      5-min Rain = 0
KTR1 172244Z 34004KT 13/M06 A3009 RMK A01 T01301061  RH  026%=      5-min Rain = 0
KTR1 172245Z 34003KT 13/M07 A3009 RMK A01 T01301065  RH  025%=      5-min Rain = 0
KTR1 172246Z 34002KT 13/M06 A3009 RMK A01 T01291062  RH  026%=      5-min Rain = 0
KTR1 172247Z 34003KT 13/M06 A3009 RMK A01 T01291062  RH  026%=      5-min Rain = 0
KTR1 172248Z 32004KT 13/M06 A3009 RMK A01 T01291060  RH  026%=      5-min Rain = 0
KTR1 172249Z 31004KT 13/M06 A3009 RMK A01 T01291061  RH  026%=      5-min Rain = 0
KTR1 172250Z 30003KT 13/M06 A3009 RMK A01 T01301061  RH  026%=      5-min Rain = 0
KTR1 172251Z 30002KT 13/M06 A3009 RMK A01 T01301063  RH  026%=      5-min Rain = 0
KTR1 172252Z 29002KT 13/M06 A3009 RMK A01 T01301062  RH  026%=      5-min Rain = 0
KTR1 172253Z 29002KT 13/M06 A3009 RMK A01 T01301064  RH  025%=      5-min Rain = 0
KTR1 172254Z 30001KT 13/M06 A3009 RMK A01 T01311058  RH  026%=      5-min Rain = 0
KTR1 172255Z 30003KT 13/M06 A3009 RMK A01 T01311058  RH  026%=      5-min Rain = 0
KTR1 172256Z 30002KT 13/M06 A3009 RMK A01 T01311059  RH  026%=      5-min Rain = 0
KTR1 172257Z 29002KT 13/M06 A3009 RMK A01 T01311064  RH  025%=      5-min Rain = 0
KTR1 172258Z 29003KT 13/M06 A3009 RMK A01 T01311058  RH  026%=      5-min Rain = 0
KTR1 172259Z 29003KT 13/M06 A3009 RMK A01 T01311058  RH  026%=      5-min Rain = 0
KTR1 172300Z 29003KT 13/M06 A3009 RMK A01 T01311061  RH  026%=      5-min Rain = 0
KTR1 172301Z 29002KT 13/M06 A3009 RMK A01 T01311057  RH  026%=      5-min Rain = 0
KTR1 172302Z 29002KT 13/M06 A3009 RMK A01 T01311058  RH  026%=      5-min Rain = 0
KTR1 172303Z 28002KT 13/M06 A3009 RMK A01 T01311062  RH  026%=      5-min Rain = 0
KTR1 172304Z 27002KT 13/M06 A3009 RMK A01 T01311059  RH  026%=      5-min Rain = 0
KTR1 172305Z 27002KT 13/M06 A3009 RMK A01 T01311061  RH  026%=      5-min Rain = 0
KTR1 172306Z 28002KT 13/M06 A3009 RMK A01 T01311057  RH  027%=      5-min Rain = 0
KTR1 172307Z 28003KT 13/M06 A3009 RMK A01 T01311056  RH  027%=      5-min Rain = 0
KTR1 172308Z 31003KT 13/M05 A3008 RMK A01 T01311049  RH  028%=      5-min Rain = 0
KTR1 172309Z 29002KT 13/M06 A3008 RMK A01 T01311056  RH  027%=      5-min Rain = 0
KTR1 172310Z 30002KT 13/M06 A3008 RMK A01 T01311055  RH  027%=      5-min Rain = 0
KTR1 172311Z 31002KT 13/M05 A3009 RMK A01 T01311051  RH  028%=      5-min Rain = 0
KTR1 172312Z 29003KT 13/M05 A3009 RMK A01 T01301053  RH  028%=      5-min Rain = 0
KTR1 172313Z 30004KT 13/M05 A3009 RMK A01 T01301053  RH  028%=      5-min Rain = 0
KTR1 172314Z 31003KT 13/M05 A3009 RMK A01 T01291053  RH  028%=      5-min Rain = 0
KTR1 172315Z 29003KT 13/M05 A3009 RMK A01 T01291048  RH  029%=      5-min Rain = 0
KTR1 172316Z 27003KT 13/M05 A3009 RMK A01 T01271047  RH  029%=      5-min Rain = 0
KTR1 172317Z 27002KT 13/M05 A3009 RMK A01 T01271050  RH  029%=      5-min Rain = 0
KTR1 172318Z 27002KT 13/M06 A3008 RMK A01 T01271055  RH  028%=      5-min Rain = 0
KTR1 172319Z 27002KT 13/M05 A3008 RMK A01 T01271048  RH  029%=      5-min Rain = 0
KTR1 172320Z 27002KT 13/M05 A3008 RMK A01 T01271047  RH  030%=      5-min Rain = 0
KTR1 172321Z 26002KT 13/M05 A3008 RMK A01 T01261048  RH  029%=      5-min Rain = 0
KTR1 172322Z 26002KT 13/M04 A3008 RMK A01 T01251043  RH  031%=      5-min Rain = 0
KTR1 172323Z 25002KT 12/M05 A3009 RMK A01 T01241048  RH  030%=      5-min Rain = 0
KTR1 172324Z 25002KT 12/M05 A3009 RMK A01 T01241051  RH  029%=      5-min Rain = 0
KTR1 172325Z 26001KT 12/M05 A3009 RMK A01 T01231054  RH  029%=      5-min Rain = 0
KTR1 172326Z 27001KT 12/M05 A3009 RMK A01 T01231054  RH  029%=      5-min Rain = 0
KTR1 172327Z 27002KT 12/M05 A3009 RMK A01 T01231050  RH  029%=      5-min Rain = 0
KTR1 172328Z 26002KT 12/M05 A3008 RMK A01 T01231051  RH  029%=      5-min Rain = 0
KTR1 172329Z 24001KT 12/M05 A3008 RMK A01 T01231053  RH  029%=      5-min Rain = 0
KTR1 172330Z 23001KT 12/M06 A3008 RMK A01 T01221055  RH  029%=      5-min Rain = 0
KTR1 172331Z 24002KT 12/M05 A3008 RMK A01 T01221054  RH  029%=      5-min Rain = 0
KTR1 172332Z 23002KT 12/M05 A3008 RMK A01 T01211053  RH  029%=      5-min Rain = 0
KTR1 172333Z 22002KT 12/M05 A3008 RMK A01 T01211053  RH  029%=      5-min Rain = 0
KTR1 172334Z 22002KT 12/M05 A3008 RMK A01 T01211053  RH  029%=      5-min Rain = 0
KTR1 172335Z 22002KT 12/M05 A3008 RMK A01 T01201050  RH  030%=      5-min Rain = 0
KTR1 172336Z 22002KT 12/M05 A3008 RMK A01 T01191050  RH  030%=      5-min Rain = 0
KTR1 172337Z 22002KT 12/M05 A3008 RMK A01 T01181051  RH  030%=      5-min Rain = 0
KTR1 172338Z 21002KT 12/M06 A3008 RMK A01 T01181055  RH  029%=      5-min Rain = 0
KTR1 172339Z 21002KT 12/M05 A3008 RMK A01 T01181053  RH  030%=      5-min Rain = 0
KTR1 172340Z 21002KT 12/M05 A3008 RMK A01 T01161053  RH  030%=      5-min Rain = 0
KTR1 172341Z 22002KT 12/M05 A3008 RMK A01 T01151054  RH  030%=      5-min Rain = 0
KTR1 172342Z 23003KT 12/M05 A3008 RMK A01 T01151054  RH  030%=      5-min Rain = 0
KTR1 172343Z 22003KT 11/M05 A3008 RMK A01 T01141051  RH  031%=      5-min Rain = 0
KTR1 172344Z 22003KT 11/M05 A3008 RMK A01 T01121047  RH  032%=      5-min Rain = 0
KTR1 172345Z 22003KT 11/M05 A3008 RMK A01 T01101048  RH  033%=      5-min Rain = 0
KTR1 172346Z 23003KT 11/M05 A3008 RMK A01 T01091051  RH  032%=      5-min Rain = 0
KTR1 172347Z 23003KT 11/M05 A3008 RMK A01 T01101051  RH  032%=      5-min Rain = 0
KTR1 172348Z 23003KT 11/M05 A3008 RMK A01 T01091051  RH  032%=      5-min Rain = 0
KTR1 172349Z 23003KT 11/M05 A3008 RMK A01 T01071046  RH  034%=      5-min Rain = 0
KTR1 172350Z 23003KT 10/M04 A3008 RMK A01 T01021043  RH  036%=      5-min Rain = 0
KTR1 172351Z 22004KT 10/M04 A3008 RMK A01 T00981043  RH  037%=      5-min Rain = 0
KTR1 172352Z 22004KT 10/M04 A3008 RMK A01 T00951044  RH  037%=      5-min Rain = 0
KTR1 172353Z 22004KT 09/M04 A3008 RMK A01 T00941043  RH  038%=      5-min Rain = 0
KTR1 172354Z 22003KT 09/M04 A3008 RMK A01 T00941044  RH  038%=      5-min Rain = 0
KTR1 172355Z 22003KT 09/M05 A3008 RMK A01 T00941045  RH  037%=      5-min Rain = 0
KTR1 172356Z 22003KT 09/M05 A3008 RMK A01 T00941045  RH  037%=      5-min Rain = 0
KTR1 172357Z 22003KT 09/M04 A3008 RMK A01 T00941043  RH  038%=      5-min Rain = 0
KTR1 172358Z 22003KT 09/M04 A3008 RMK A01 T00941043  RH  038%=      5-min Rain = 0
KTR1 172359Z 22003KT 10/M04 A3008 RMK A01 T00951043  RH  038%=      5-min Rain = 0
KTR1 180000Z 22003KT 10/M04 A3008 RMK A01 T00951042  RH  038%=      5-min Rain = 0
KTR1 180001Z 22003KT 10/M04 A3008 RMK A01 T00961043  RH  037%=      5-min Rain = 0
KTR1 180002Z 22003KT 10/M04 A3008 RMK A01 T00961040  RH  038%=      5-min Rain = 0
KTR1 180003Z 21003KT 09/M04 A3008 RMK A01 T00931039  RH  039%=      5-min Rain = 0
KTR1 180004Z 21003KT 09/M04 A3008 RMK A01 T00901040  RH  040%=      5-min Rain = 0
KTR1 180005Z 22003KT 09/M05 A3008 RMK A01 T00891045  RH  038%=      5-min Rain = 0
KTR1 180006Z 21003KT 09/M05 A3008 RMK A01 T00921045  RH  038%=      5-min Rain = 0
KTR1 180007Z 21003KT 09/M04 A3008 RMK A01 T00921043  RH  038%=      5-min Rain = 0
KTR1 180008Z 21003KT 09/M04 A3008 RMK A01 T00891044  RH  039%=      5-min Rain = 0
KTR1 180009Z 21003KT 09/M05 A3008 RMK A01 T00881046  RH  038%=      5-min Rain = 0
KTR1 180010Z 21003KT 09/M05 A3008 RMK A01 T00861046  RH  039%=      5-min Rain = 0
KTR1 180011Z 21003KT 08/M05 A3008 RMK A01 T00831046  RH  040%=      5-min Rain = 0
KTR1 180012Z 21004KT 08/M05 A3008 RMK A01 T00801046  RH  041%=      5-min Rain = 0
KTR1 180013Z 21004KT 08/M05 A3008 RMK A01 T00771047  RH  041%=      5-min Rain = 0
KTR1 180014Z 22004KT 08/M05 A3008 RMK A01 T00751047  RH  042%=      5-min Rain = 0
KTR1 180015Z 22004KT 07/M05 A3008 RMK A01 T00731046  RH  042%=      5-min Rain = 0
KTR1 180016Z 22004KT 07/M05 A3008 RMK A01 T00731046  RH  043%=      5-min Rain = 0
KTR1 180017Z 21004KT 07/M05 A3008 RMK A01 T00721046  RH  043%=      5-min Rain = 0
KTR1 180018Z 21004KT 07/M05 A3008 RMK A01 T00731046  RH  043%=      5-min Rain = 0
KTR1 180019Z 21004KT 07/M05 A3008 RMK A01 T00741046  RH  042%=      5-min Rain = 0
KTR1 180020Z 21004KT 07/M05 A3008 RMK A01 T00741045  RH  042%=      5-min Rain = 0
KTR1 180021Z 21004KT 07/M05 A3008 RMK A01 T00741047  RH  042%=      5-min Rain = 0
KTR1 180022Z 21004KT 08/M05 A3008 RMK A01 T00781046  RH  041%=      5-min Rain = 0
KTR1 180023Z 21004KT 08/M05 A3008 RMK A01 T00791046  RH  041%=      5-min Rain = 0
KTR1 180024Z 21004KT 08/M05 A3008 RMK A01 T00791047  RH  040%=      5-min Rain = 0
KTR1 180025Z 22004KT 08/M05 A3008 RMK A01 T00791046  RH  041%=      5-min Rain = 0
KTR1 180026Z 21004KT 08/M05 A3008 RMK A01 T00791046  RH  041%=      5-min Rain = 0
KTR1 180027Z 22004KT 08/M05 A3008 RMK A01 T00781046  RH  041%=      5-min Rain = 0
KTR1 180028Z 22004KT 08/M05 A3008 RMK A01 T00781046  RH  041%=      5-min Rain = 0
KTR1 180029Z 22004KT 08/M05 A3008 RMK A01 T00781047  RH  041%=      5-min Rain = 0
KTR1 180030Z 22004KT 08/M05 A3008 RMK A01 T00771045  RH  041%=      5-min Rain = 0
KTR1 180031Z 22004KT 08/M04 A3008 RMK A01 T00761044  RH  042%=      5-min Rain = 0
KTR1 180032Z 22003KT 07/M05 A3008 RMK A01 T00741046  RH  042%=      5-min Rain = 0
KTR1 180033Z 22003KT 07/M05 A3008 RMK A01 T00741047  RH  042%=      5-min Rain = 0
KTR1 180034Z 21004KT 08/M05 A3008 RMK A01 T00751050  RH  041%=      5-min Rain = 0
KTR1 180035Z 21004KT 08/M05 A3008 RMK A01 T00761048  RH  041%=      5-min Rain = 0
KTR1 180036Z 22004KT 08/M05 A3009 RMK A01 T00751048  RH  041%=      5-min Rain = 0
KTR1 180037Z 22004KT 07/M05 A3009 RMK A01 T00741049  RH  041%=      5-min Rain = 0
KTR1 180038Z 21004KT 07/M05 A3009 RMK A01 T00741049  RH  041%=      5-min Rain = 0
KTR1 180039Z 21004KT 08/M05 A3009 RMK A01 T00751048  RH  041%=      5-min Rain = 0
KTR1 180040Z 21004KT 07/M05 A3009 RMK A01 T00731047  RH  042%=      5-min Rain = 0
KTR1 180041Z 21004KT 07/M05 A3009 RMK A01 T00691047  RH  043%=      5-min Rain = 0
KTR1 180042Z 21005KT 07/M05 A3009 RMK A01 T00661047  RH  044%=      5-min Rain = 0
KTR1 180043Z 21005KT 06/M05 A3009 RMK A01 T00641047  RH  045%=      5-min Rain = 0
KTR1 180044Z 21005KT 07/M05 A3009 RMK A01 T00651048  RH  044%=      5-min Rain = 0
KTR1 180045Z 21005KT 06/M05 A3009 RMK A01 T00631046  RH  045%=      5-min Rain = 0
KTR1 180046Z 21005KT 06/M05 A3009 RMK A01 T00611046  RH  046%=      5-min Rain = 0
KTR1 180047Z 21005KT 06/M05 A3009 RMK A01 T00601046  RH  046%=      5-min Rain = 0
KTR1 180048Z 21005KT 06/M05 A3009 RMK A01 T00611047  RH  046%=      5-min Rain = 0
KTR1 180049Z 21005KT 07/M05 A3009 RMK A01 T00651049  RH  044%=      5-min Rain = 0
KTR1 180050Z 21006KT 07/M05 A3009 RMK A01 T00711047  RH  043%=      5-min Rain = 0
KTR1 180051Z 20006KT 07/M05 A3009 RMK A01 T00681047  RH  044%=      5-min Rain = 0
KTR1 180052Z 20006KT 07/M05 A3009 RMK A01 T00651048  RH  044%=      5-min Rain = 0
KTR1 180053Z 20006KT 07/M05 A3009 RMK A01 T00651048  RH  044%=      5-min Rain = 0
KTR1 180054Z 20006KT 07/M05 A3009 RMK A01 T00651049  RH  044%=      5-min Rain = 0
KTR1 180055Z 20006KT 07/M05 A3009 RMK A01 T00651048  RH  044%=      5-min Rain = 0
KTR1 180056Z 20006KT 06/M05 A3009 RMK A01 T00641047  RH  045%=      5-min Rain = 0
KTR1 180057Z 20006KT 06/M05 A3009 RMK A01 T00631048  RH  045%=      5-min Rain = 0
KTR1 180058Z 20006KT 07/M05 A3009 RMK A01 T00651048  RH  044%=      5-min Rain = 0
KTR1 180059Z 20007KT 07/M05 A3009 RMK A01 T00671048  RH  044%=      5-min Rain = 0
KTR1 180100Z 20006KT 07/M05 A3009 RMK A01 T00691048  RH  043%=      5-min Rain = 0
KTR1 180101Z 20007KT 07/M05 A3009 RMK A01 T00691049  RH  043%=      5-min Rain = 0
KTR1 180102Z 20007KT 07/M05 A3009 RMK A01 T00701049  RH  043%=      5-min Rain = 0
KTR1 180103Z 20007KT 07/M05 A3009 RMK A01 T00671048  RH  043%=      5-min Rain = 0
KTR1 180104Z 20007KT 06/M05 A3009 RMK A01 T00631049  RH  045%=      5-min Rain = 0
KTR1 180105Z 20007KT 06/M05 A3009 RMK A01 T00611049  RH  045%=      5-min Rain = 0
KTR1 180106Z 20007KT 06/M05 A3009 RMK A01 T00601049  RH  045%=      5-min Rain = 0
KTR1 180107Z 20007KT 06/M05 A3009 RMK A01 T00601048  RH  046%=      5-min Rain = 0
KTR1 180108Z 20008KT 06/M05 A3009 RMK A01 T00591047  RH  046%=      5-min Rain = 0
KTR1 180109Z 20008KT 06/M05 A3009 RMK A01 T00581046  RH  047%=      5-min Rain = 0
KTR1 180110Z 19008KT 06/M05 A3009 RMK A01 T00571046  RH  048%=      5-min Rain = 0
KTR1 180111Z 20007KT 06/M05 A3009 RMK A01 T00571046  RH  048%=      5-min Rain = 0
KTR1 180112Z 20007KT 06/M05 A3009 RMK A01 T00581046  RH  047%=      5-min Rain = 0
KTR1 180113Z 20008KT 06/M05 A3009 RMK A01 T00611046  RH  046%=      5-min Rain = 0
KTR1 180114Z 20008KT 06/M05 A3009 RMK A01 T00631046  RH  046%=      5-min Rain = 0
KTR1 180115Z 20008KT 07/M05 A3009 RMK A01 T00671045  RH  045%=      5-min Rain = 0
KTR1 180116Z 20008KT 07/M05 A3009 RMK A01 T00691045  RH  044%=      5-min Rain = 0
KTR1 180117Z 19008KT 07/M05 A3009 RMK A01 T00701046  RH  043%=      5-min Rain = 0
KTR1 180118Z 19008KT 07/M05 A3009 RMK A01 T00711046  RH  043%=      5-min Rain = 0
KTR1 180119Z 19008KT 07/M05 A3009 RMK A01 T00711046  RH  043%=      5-min Rain = 0
KTR1 180120Z 19007KT 07/M05 A3009 RMK A01 T00711046  RH  043%=      5-min Rain = 0
KTR1 180121Z 20007KT 07/M05 A3009 RMK A01 T00701046  RH  043%=      5-min Rain = 0
KTR1 180122Z 20007KT 07/M05 A3009 RMK A01 T00711046  RH  043%=      5-min Rain = 0
KTR1 180123Z 20007KT 07/M05 A3009 RMK A01 T00701047  RH  043%=      5-min Rain = 0
KTR1 180124Z 20007KT 07/M05 A3009 RMK A01 T00691047  RH  043%=      5-min Rain = 0
KTR1 180125Z 20007KT 07/M05 A3009 RMK A01 T00661046  RH  045%=      5-min Rain = 0
KTR1 180126Z 20007KT 06/M05 A3009 RMK A01 T00631045  RH  046%=      5-min Rain = 0
KTR1 180127Z 20007KT 06/M05 A3009 RMK A01 T00611045  RH  047%=      5-min Rain = 0
KTR1 180128Z 20007KT 06/M04 A3009 RMK A01 T00601044  RH  047%=      5-min Rain = 0
KTR1 180129Z 20007KT 06/M05 A3009 RMK A01 T00581045  RH  048%=      5-min Rain = 0
KTR1 180130Z 20007KT 06/M05 A3009 RMK A01 T00561046  RH  048%=      5-min Rain = 0
KTR1 180131Z 20007KT 05/M04 A3009 RMK A01 T00541044  RH  049%=      5-min Rain = 0
KTR1 180132Z 20007KT 05/M04 A3009 RMK A01 T00521044  RH  050%=      5-min Rain = 0
KTR1 180133Z 20008KT 05/M04 A3009 RMK A01 T00511044  RH  050%=      5-min Rain = 0
KTR1 180134Z 20008KT 05/M04 A3009 RMK A01 T00501044  RH  050%=      5-min Rain = 0
KTR1 180135Z 20008KT 05/M05 A3009 RMK A01 T00521045  RH  050%=      5-min Rain = 0
KTR1 180136Z 20008KT 05/M04 A3009 RMK A01 T00541044  RH  049%=      5-min Rain = 0
KTR1 180137Z 20008KT 05/M04 A3009 RMK A01 T00541043  RH  049%=      5-min Rain = 0
KTR1 180138Z 20008KT 05/M04 A3009 RMK A01 T00541043  RH  050%=      5-min Rain = 0
KTR1 180139Z 20007KT 05/M04 A3008 RMK A01 T00521043  RH  050%=      5-min Rain = 0
KTR1 180140Z 20007KT 05/M04 A3008 RMK A01 T00501044  RH  051%=      5-min Rain = 0
KTR1 180141Z 19005KT 05/M04 A3008 RMK A01 T00481044  RH  051%=      5-min Rain = 0
KTR1 180142Z 19004KT 05/M04 A3008 RMK A01 T00471042  RH  052%=      5-min Rain = 0
KTR1 180143Z 19005KT 05/M04 A3008 RMK A01 T00461041  RH  053%=      5-min Rain = 0
KTR1 180144Z 19005KT 05/M04 A3008 RMK A01 T00461040  RH  054%=      5-min Rain = 0
KTR1 180145Z 19006KT 05/M04 A3008 RMK A01 T00471039  RH  054%=      5-min Rain = 0
KTR1 180146Z 18006KT 05/M04 A3008 RMK A01 T00481039  RH  053%=      5-min Rain = 0
KTR1 180147Z 18006KT 05/M04 A3008 RMK A01 T00501040  RH  052%=      5-min Rain = 0
KTR1 180148Z 18006KT 05/M04 A3008 RMK A01 T00531040  RH  051%=      5-min Rain = 0
KTR1 180149Z 18006KT 05/M04 A3008 RMK A01 T00541040  RH  051%=      5-min Rain = 0
KTR1 180150Z 19007KT 05/M04 A3008 RMK A01 T00541040  RH  051%=      5-min Rain = 0
KTR1 180151Z 19007KT 06/M04 A3008 RMK A01 T00551041  RH  050%=      5-min Rain = 0
KTR1 180152Z 20008KT 06/M04 A3008 RMK A01 T00561041  RH  050%=      5-min Rain = 0
KTR1 180153Z 19007KT 06/M04 A3008 RMK A01 T00561042  RH  049%=      5-min Rain = 0
KTR1 180154Z 20008KT 06/M04 A3008 RMK A01 T00561041  RH  050%=      5-min Rain = 0
KTR1 180155Z 20009KT 06/M04 A3008 RMK A01 T00551041  RH  050%=      5-min Rain = 0
KTR1 180156Z 20009KT 05/M04 A3008 RMK A01 T00531043  RH  050%=      5-min Rain = 0
KTR1 180157Z 20009KT 05/M04 A3008 RMK A01 T00531042  RH  050%=      5-min Rain = 0
KTR1 180158Z 20009KT 05/M04 A3008 RMK A01 T00541042  RH  050%=      5-min Rain = 0
KTR1 180159Z 20009KT 06/M04 A3008 RMK A01 T00561042  RH  049%=      5-min Rain = 0
KTR1 180200Z 20009KT 06/M04 A3008 RMK A01 T00571042  RH  049%=      5-min Rain = 0
KTR1 180201Z 20009KT 06/M04 A3008 RMK A01 T00571042  RH  049%=      5-min Rain = 0
KTR1 180202Z 20009KT 06/M04 A3008 RMK A01 T00571042  RH  049%=      5-min Rain = 0
KTR1 180203Z 20009KT 06/M04 A3008 RMK A01 T00571042  RH  049%=      5-min Rain = 0
KTR1 180204Z 20009KT 06/M04 A3008 RMK A01 T00571042  RH  049%=      5-min Rain = 0
KTR1 180205Z 20009KT 06/M04 A3008 RMK A01 T00571043  RH  049%=      5-min Rain = 0
KTR1 180206Z 20009KT 06/M04 A3008 RMK A01 T00571043  RH  049%=      5-min Rain = 0
KTR1 180207Z 20009KT 06/M04 A3008 RMK A01 T00561043  RH  049%=      5-min Rain = 0
KTR1 180208Z 20009KT 06/M04 A3008 RMK A01 T00551043  RH  049%=      5-min Rain = 0
KTR1 180209Z 20009KT 05/M04 A3008 RMK A01 T00541043  RH  050%=      5-min Rain = 0
KTR1 180210Z 20009KT 05/M04 A3008 RMK A01 T00541044  RH  050%=      5-min Rain = 0
KTR1 180211Z 20009KT 06/M04 A3008 RMK A01 T00551044  RH  049%=      5-min Rain = 0
KTR1 180212Z 20009KT 06/M04 A3008 RMK A01 T00561044  RH  049%=      5-min Rain = 0
KTR1 180213Z 20009KT 06/M04 A3008 RMK A01 T00571044  RH  048%=      5-min Rain = 0
KTR1 180214Z 20009KT 06/M04 A3008 RMK A01 T00571043  RH  048%=      5-min Rain = 0
KTR1 180215Z 20009KT 06/M04 A3008 RMK A01 T00571043  RH  048%=      5-min Rain = 0
KTR1 180216Z 20009KT 06/M04 A3008 RMK A01 T00571044  RH  048%=      5-min Rain = 0
KTR1 180217Z 20009KT 06/M04 A3008 RMK A01 T00571044  RH  048%=      5-min Rain = 0
KTR1 180218Z 20009KT 06/M04 A3008 RMK A01 T00581044  RH  048%=      5-min Rain = 0
KTR1 180219Z 20009KT 06/M04 A3008 RMK A01 T00581044  RH  048%=      5-min Rain = 0
KTR1 180220Z 20009KT 06/M04 A3008 RMK A01 T00571044  RH  048%=      5-min Rain = 0
KTR1 180221Z 20010KT 06/M04 A3008 RMK A01 T00571044  RH  048%=      5-min Rain = 0
KTR1 180222Z 20010KT 06/M05 A3008 RMK A01 T00581045  RH  047%=      5-min Rain = 0
KTR1 180223Z 20010KT 06/M05 A3008 RMK A01 T00601045  RH  047%=      5-min Rain = 0
KTR1 180224Z 20010KT 06/M05 A3008 RMK A01 T00601045  RH  047%=      5-min Rain = 0
KTR1 180225Z 20010KT 06/M05 A3008 RMK A01 T00611045  RH  046%=      5-min Rain = 0
KTR1 180226Z 20009KT 06/M05 A3008 RMK A01 T00611046  RH  046%=      5-min Rain = 0
KTR1 180227Z 20009KT 06/M05 A3008 RMK A01 T00611046  RH  046%=      5-min Rain = 0
KTR1 180228Z 20010KT 06/M05 A3008 RMK A01 T00621046  RH  046%=      5-min Rain = 0
KTR1 180229Z 20009KT 06/M05 A3008 RMK A01 T00621046  RH  046%=      5-min Rain = 0
KTR1 180230Z 20009KT 06/M04 A3008 RMK A01 T00631044  RH  046%=      5-min Rain = 0
KTR1 180231Z 20008KT 06/M04 A3008 RMK A01 T00601043  RH  048%=      5-min Rain = 0
KTR1 180232Z 20007KT 06/M04 A3008 RMK A01 T00551044  RH  049%=      5-min Rain = 0
KTR1 180233Z 20008KT 05/M04 A3008 RMK A01 T00511044  RH  050%=      5-min Rain = 0
KTR1 180234Z 20010KT 05/M05 A3008 RMK A01 T00481045  RH  051%=      5-min Rain = 0
KTR1 180235Z 20010KT 05/M04 A3008 RMK A01 T00491044  RH  051%=      5-min Rain = 0
KTR1 180236Z 20010KT 05/M04 A3008 RMK A01 T00531044  RH  049%=      5-min Rain = 0
KTR1 180237Z 20011KT 06/M05 A3008 RMK A01 T00571045  RH  048%=      5-min Rain = 0
KTR1 180238Z 20011KT 06/M05 A3008 RMK A01 T00591045  RH  047%=      5-min Rain = 0
KTR1 180239Z 20011KT 06/M05 A3008 RMK A01 T00601046  RH  047%=      5-min Rain = 0
KTR1 180240Z 20010KT 06/M05 A3008 RMK A01 T00621045  RH  046%=      5-min Rain = 0
KTR1 180241Z 20010KT 06/M05 A3008 RMK A01 T00621045  RH  046%=      5-min Rain = 0
KTR1 180242Z 20010KT 06/M05 A3008 RMK A01 T00621046  RH  046%=      5-min Rain = 0
KTR1 180243Z 20010KT 06/M05 A3008 RMK A01 T00611045  RH  047%=      5-min Rain = 0
KTR1 180244Z 20010KT 06/M05 A3008 RMK A01 T00601045  RH  047%=      5-min Rain = 0
KTR1 180245Z 20010KT 06/M05 A3008 RMK A01 T00611046  RH  046%=      5-min Rain = 0
KTR1 180246Z 20010KT 06/M05 A3007 RMK A01 T00631046  RH  046%=      5-min Rain = 0
KTR1 180247Z 20010KT 06/M05 A3007 RMK A01 T00621046  RH  046%=      5-min Rain = 0
KTR1 180248Z 20009KT 06/M05 A3007 RMK A01 T00611045  RH  046%=      5-min Rain = 0
KTR1 180249Z 20009KT 06/M04 A3007 RMK A01 T00591044  RH  047%=      5-min Rain = 0
KTR1 180250Z 20009KT 06/M04 A3007 RMK A01 T00551044  RH  049%=      5-min Rain = 0
KTR1 180251Z 20009KT 05/M04 A3007 RMK A01 T00511044  RH  050%=      5-min Rain = 0
KTR1 180252Z 20009KT 05/M04 A3007 RMK A01 T00481043  RH  051%=      5-min Rain = 0
KTR1 180253Z 20009KT 05/M04 A3007 RMK A01 T00471043  RH  052%=      5-min Rain = 0
KTR1 180254Z 20010KT 05/M04 A3007 RMK A01 T00461043  RH  052%=      5-min Rain = 0
KTR1 180255Z 20010KT 05/M04 A3007 RMK A01 T00471044  RH  052%=      5-min Rain = 0
KTR1 180256Z 20011KT 05/M04 A3007 RMK A01 T00511043  RH  051%=      5-min Rain = 0
KTR1 180257Z 20010KT 05/M04 A3007 RMK A01 T00541043  RH  049%=      5-min Rain = 0
KTR1 180258Z 20010KT 06/M04 A3007 RMK A01 T00561044  RH  049%=      5-min Rain = 0
KTR1 180259Z 20011KT 06/M04 A3007 RMK A01 T00581044  RH  048%=      5-min Rain = 0
KTR1 180300Z 20011KT 06/M04 A3007 RMK A01 T00591044  RH  047%=      5-min Rain = 0
KTR1 180301Z 20011KT 06/M04 A3007 RMK A01 T00591044  RH  047%=      5-min Rain = 0
KTR1 180302Z 20011KT 06/M04 A3007 RMK A01 T00591044  RH  048%=      5-min Rain = 0
KTR1 180303Z 20010KT 06/M04 A3007 RMK A01 T00591044  RH  047%=      5-min Rain = 0
KTR1 180304Z 20010KT 06/M04 A3007 RMK A01 T00591044  RH  047%=      5-min Rain = 0
KTR1 180305Z 20010KT 06/M04 A3007 RMK A01 T00591044  RH  048%=      5-min Rain = 0
KTR1 180306Z 20010KT 06/M04 A3007 RMK A01 T00591044  RH  048%=      5-min Rain = 0
KTR1 180307Z 20010KT 06/M04 A3007 RMK A01 T00581044  RH  048%=      5-min Rain = 0
KTR1 180308Z 20010KT 06/M04 A3007 RMK A01 T00581044  RH  048%=      5-min Rain = 0
KTR1 180309Z 20010KT 06/M04 A3007 RMK A01 T00581044  RH  048%=      5-min Rain = 0
KTR1 180310Z 20010KT 06/M04 A3007 RMK A01 T00591044  RH  048%=      5-min Rain = 0
KTR1 180311Z 20010KT 06/M04 A3007 RMK A01 T00591044  RH  047%=      5-min Rain = 0
KTR1 180312Z 20010KT 06/M04 A3007 RMK A01 T00601044  RH  047%=      5-min Rain = 0
KTR1 180313Z 20010KT 06/M04 A3007 RMK A01 T00601044  RH  047%=      5-min Rain = 0
KTR1 180314Z 20009KT 06/M04 A3007 RMK A01 T00591043  RH  048%=      5-min Rain = 0
KTR1 180315Z 20009KT 06/M04 A3007 RMK A01 T00581043  RH  048%=      5-min Rain = 0
KTR1 180316Z 20009KT 06/M04 A3007 RMK A01 T00571043  RH  049%=      5-min Rain = 0
KTR1 180317Z 20009KT 06/M04 A3007 RMK A01 T00561043  RH  049%=      5-min Rain = 0
KTR1 180318Z 20009KT 06/M04 A3007 RMK A01 T00561042  RH  049%=      5-min Rain = 0
KTR1 180319Z 20009KT 05/M04 A3007 RMK A01 T00531042  RH  050%=      5-min Rain = 0
KTR1 180320Z 20008KT 05/M04 A3007 RMK A01 T00501042  RH  051%=      5-min Rain = 0
KTR1 180321Z 20008KT 05/M04 A3007 RMK A01 T00481043  RH  052%=      5-min Rain = 0
KTR1 180322Z 20007KT 05/M04 A3007 RMK A01 T00471043  RH  052%=      5-min Rain = 0
KTR1 180323Z 20008KT 05/M04 A3007 RMK A01 T00481043  RH  052%=      5-min Rain = 0
KTR1 180324Z 21009KT 05/M04 A3007 RMK A01 T00491043  RH  051%=      5-min Rain = 0
KTR1 180325Z 21009KT 05/M04 A3007 RMK A01 T00501043  RH  051%=      5-min Rain = 0
KTR1 180326Z 20009KT 05/M04 A3007 RMK A01 T00501043  RH  051%=      5-min Rain = 0
KTR1 180327Z 20009KT 05/M04 A3007 RMK A01 T00481042  RH  052%=      5-min Rain = 0
KTR1 180328Z 20009KT 05/M04 A3007 RMK A01 T00461042  RH  053%=      5-min Rain = 0
KTR1 180329Z 20009KT 04/M04 A3007 RMK A01 T00431042  RH  054%=      5-min Rain = 0
KTR1 180330Z 20010KT 04/M04 A3006 RMK A01 T00421042  RH  054%=      5-min Rain = 0
KTR1 180331Z 20009KT 05/M04 A3006 RMK A01 T00451041  RH  054%=      5-min Rain = 0
KTR1 180332Z 20009KT 05/M04 A3006 RMK A01 T00471041  RH  053%=      5-min Rain = 0
KTR1 180333Z 20009KT 05/M04 A3006 RMK A01 T00491041  RH  052%=      5-min Rain = 0
KTR1 180334Z 20009KT 05/M04 A3006 RMK A01 T00501041  RH  052%=      5-min Rain = 0
KTR1 180335Z 20008KT 05/M04 A3006 RMK A01 T00481041  RH  053%=      5-min Rain = 0
KTR1 180336Z 20009KT 04/M04 A3006 RMK A01 T00441042  RH  054%=      5-min Rain = 0
KTR1 180337Z 20010KT 04/M04 A3006 RMK A01 T00431042  RH  054%=      5-min Rain = 0
KTR1 180338Z 20010KT 05/M04 A3006 RMK A01 T00471041  RH  053%=      5-min Rain = 0
KTR1 180339Z 20010KT 05/M04 A3006 RMK A01 T00491042  RH  052%=      5-min Rain = 0
KTR1 180340Z 20010KT 05/M04 A3006 RMK A01 T00501042  RH  051%=      5-min Rain = 0
KTR1 180341Z 20010KT 05/M04 A3006 RMK A01 T00511042  RH  051%=      5-min Rain = 0
KTR1 180342Z 20010KT 05/M04 A3006 RMK A01 T00521042  RH  051%=      5-min Rain = 0
KTR1 180343Z 20010KT 05/M04 A3006 RMK A01 T00531042  RH  050%=      5-min Rain = 0
KTR1 180344Z 20010KT 05/M04 A3006 RMK A01 T00541043  RH  050%=      5-min Rain = 0
KTR1 180345Z 20010KT 06/M04 A3006 RMK A01 T00551042  RH  050%=      5-min Rain = 0
KTR1 180346Z 20010KT 06/M04 A3006 RMK A01 T00551042  RH  050%=      5-min Rain = 0
KTR1 180347Z 20010KT 06/M04 A3006 RMK A01 T00551042  RH  050%=      5-min Rain = 0
KTR1 180348Z 20010KT 05/M04 A3006 RMK A01 T00541042  RH  050%=      5-min Rain = 0
KTR1 180349Z 20010KT 05/M04 A3006 RMK A01 T00531042  RH  050%=      5-min Rain = 0
KTR1 180350Z 20009KT 05/M04 A3006 RMK A01 T00521042  RH  051%=      5-min Rain = 0
KTR1 180351Z 20009KT 05/M04 A3006 RMK A01 T00501041  RH  052%=      5-min Rain = 0
KTR1 180352Z 20009KT 05/M04 A3006 RMK A01 T00461042  RH  053%=      5-min Rain = 0
KTR1 180353Z 20009KT 04/M04 A3006 RMK A01 T00431042  RH  054%=      5-min Rain = 0
KTR1 180354Z 20010KT 04/M04 A3006 RMK A01 T00431042  RH  054%=      5-min Rain = 0
KTR1 180355Z 20010KT 05/M04 A3006 RMK A01 T00451041  RH  053%=      5-min Rain = 0
KTR1 180356Z 20010KT 05/M04 A3006 RMK A01 T00471041  RH  053%=      5-min Rain = 0
KTR1 180357Z 20010KT 05/M04 A3006 RMK A01 T00481041  RH  052%=      5-min Rain = 0
KTR1 180358Z 20010KT 05/M04 A3006 RMK A01 T00481042  RH  052%=      5-min Rain = 0
KTR1 180359Z 20010KT 05/M04 A3006 RMK A01 T00481041  RH  052%=      5-min Rain = 0
KTR1 180400Z 20010KT 05/M04 A3006 RMK A01 T00491041  RH  052%=      5-min Rain = 0
KTR1 180401Z 20010KT 05/M04 A3006 RMK A01 T00491041  RH  052%=      5-min Rain = 0
KTR1 180402Z 20010KT 05/M04 A3006 RMK A01 T00491042  RH  052%=      5-min Rain = 0
KTR1 180403Z 20009KT 05/M04 A3006 RMK A01 T00491041  RH  052%=      5-min Rain = 0
KTR1 180404Z 20010KT 05/M04 A3005 RMK A01 T00491041  RH  052%=      5-min Rain = 0
KTR1 180405Z 20010KT 05/M04 A3005 RMK A01 T00481041  RH  052%=      5-min Rain = 0
KTR1 180406Z 20010KT 05/M04 A3005 RMK A01 T00481041  RH  052%=      5-min Rain = 0
KTR1 180407Z 20010KT 05/M04 A3005 RMK A01 T00481042  RH  052%=      5-min Rain = 0
KTR1 180408Z 20010KT 05/M04 A3005 RMK A01 T00491041  RH  052%=      5-min Rain = 0
KTR1 180409Z 20010KT 05/M04 A3005 RMK A01 T00491041  RH  052%=      5-min Rain = 0
KTR1 180410Z 20010KT 05/M04 A3005 RMK A01 T00491041  RH  052%=      5-min Rain = 0
KTR1 180411Z 20010KT 05/M04 A3005 RMK A01 T00481042  RH  052%=      5-min Rain = 0
KTR1 180412Z 20010KT 05/M04 A3005 RMK A01 T00491042  RH  052%=      5-min Rain = 0
KTR1 180413Z 20010KT 05/M04 A3005 RMK A01 T00491041  RH  052%=      5-min Rain = 0
KTR1 180414Z 20010KT 05/M04 A3005 RMK A01 T00481041  RH  052%=      5-min Rain = 0
KTR1 180415Z 20010KT 05/M04 A3005 RMK A01 T00481041  RH  053%=      5-min Rain = 0
KTR1 180416Z 20009KT 05/M04 A3005 RMK A01 T00461040  RH  053%=      5-min Rain = 0
KTR1 180417Z 20009KT 04/M04 A3005 RMK A01 T00441040  RH  054%=      5-min Rain = 0
KTR1 180418Z 20008KT 04/M04 A3005 RMK A01 T00421041  RH  055%=      5-min Rain = 0
KTR1 180419Z 20008KT 04/M04 A3005 RMK A01 T00411041  RH  055%=      5-min Rain = 0
KTR1 180420Z 20008KT 04/M04 A3005 RMK A01 T00401041  RH  056%=      5-min Rain = 0
KTR1 180421Z 20009KT 04/M04 A3005 RMK A01 T00391041  RH  056%=      5-min Rain = 0
KTR1 180422Z 20009KT 04/M04 A3005 RMK A01 T00391041  RH  056%=      5-min Rain = 0
KTR1 180423Z 21009KT 04/M04 A3005 RMK A01 T00381041  RH  056%=      5-min Rain = 0
KTR1 180424Z 20009KT 04/M04 A3005 RMK A01 T00391040  RH  056%=      5-min Rain = 0
KTR1 180425Z 20009KT 04/M04 A3005 RMK A01 T00391040  RH  056%=      5-min Rain = 0
KTR1 180426Z 20009KT 04/M04 A3005 RMK A01 T00381040  RH  057%=      5-min Rain = 0
KTR1 180427Z 20010KT 04/M04 A3005 RMK A01 T00381040  RH  057%=      5-min Rain = 0
KTR1 180428Z 21010KT 04/M04 A3005 RMK A01 T00371040  RH  057%=      5-min Rain = 0
KTR1 180429Z 21010KT 04/M04 A3005 RMK A01 T00361041  RH  057%=      5-min Rain = 0
KTR1 180430Z 21010KT 04/M04 A3005 RMK A01 T00371040  RH  057%=      5-min Rain = 0
KTR1 180431Z 21010KT 04/M04 A3005 RMK A01 T00381040  RH  057%=      5-min Rain = 0
KTR1 180432Z 21010KT 04/M04 A3005 RMK A01 T00381041  RH  056%=      5-min Rain = 0
KTR1 180433Z 21010KT 04/M04 A3005 RMK A01 T00381040  RH  057%=      5-min Rain = 0
KTR1 180434Z 21010KT 04/M04 A3005 RMK A01 T00381041  RH  057%=      5-min Rain = 0
KTR1 180435Z 21010KT 04/M04 A3005 RMK A01 T00381040  RH  057%=      5-min Rain = 0
KTR1 180436Z 21010KT 04/M04 A3005 RMK A01 T00381041  RH  056%=      5-min Rain = 0
KTR1 180437Z 21010KT 04/M04 A3005 RMK A01 T00381040  RH  057%=      5-min Rain = 0
KTR1 180438Z 21010KT 04/M04 A3005 RMK A01 T00371040  RH  057%=      5-min Rain = 0
KTR1 180439Z 21010KT 04/M04 A3005 RMK A01 T00371040  RH  057%=      5-min Rain = 0
KTR1 180440Z 21010KT 04/M04 A3004 RMK A01 T00371040  RH  057%=      5-min Rain = 0
KTR1 180441Z 21010KT 04/M04 A3004 RMK A01 T00381040  RH  057%=      5-min Rain = 0
KTR1 180442Z 21009KT 04/M04 A3004 RMK A01 T00381040  RH  056%=      5-min Rain = 0
KTR1 180443Z 21009KT 04/M04 A3004 RMK A01 T00401041  RH  056%=      5-min Rain = 0
KTR1 180444Z 20009KT 04/M04 A3004 RMK A01 T00401041  RH  056%=      5-min Rain = 0
KTR1 180445Z 20009KT 04/M04 A3004 RMK A01 T00411040  RH  056%=      5-min Rain = 0
KTR1 180446Z 20009KT 04/M04 A3004 RMK A01 T00391040  RH  056%=      5-min Rain = 0
KTR1 180447Z 20009KT 04/M04 A3004 RMK A01 T00381040  RH  057%=      5-min Rain = 0
KTR1 180448Z 20009KT 04/M04 A3004 RMK A01 T00381040  RH  057%=      5-min Rain = 0
KTR1 180449Z 20009KT 04/M04 A3004 RMK A01 T00371039  RH  057%=      5-min Rain = 0
KTR1 180450Z 21009KT 04/M04 A3004 RMK A01 T00361040  RH  058%=      5-min Rain = 0
KTR1 180451Z 21008KT 04/M04 A3004 RMK A01 T00351040  RH  058%=      5-min Rain = 0
KTR1 180452Z 21008KT 04/M04 A3004 RMK A01 T00361040  RH  057%=      5-min Rain = 0
KTR1 180453Z 20008KT 04/M04 A3004 RMK A01 T00381040  RH  057%=      5-min Rain = 0
KTR1 180454Z 20008KT 04/M04 A3004 RMK A01 T00391040  RH  056%=      5-min Rain = 0
KTR1 180455Z 20009KT 04/M04 A3004 RMK A01 T00391040  RH  056%=      5-min Rain = 0
KTR1 180456Z 20009KT 04/M04 A3004 RMK A01 T00391040  RH  056%=      5-min Rain = 0
KTR1 180457Z 20010KT 04/M04 A3004 RMK A01 T00381040  RH  057%=      5-min Rain = 0
KTR1 180458Z 20010KT 04/M04 A3004 RMK A01 T00371040  RH  057%=      5-min Rain = 0
KTR1 180459Z 20010KT 04/M04 A3004 RMK A01 T00431038  RH  056%=      5-min Rain = 0
KTR1 180500Z 20010KT 05/M04 A3004 RMK A01 T00461039  RH  054%=      5-min Rain = 0
KTR1 180501Z 19011KT 05/M04 A3003 RMK A01 T00471039  RH  054%=      5-min Rain = 0
KTR1 180502Z 20009KT 05/M04 A3003 RMK A01 T00461039  RH  054%=      5-min Rain = 0
KTR1 180503Z 20012KT 05/M04 A3003 RMK A01 T00451040  RH  054%=      5-min Rain = 0
KTR1 180504Z 20011KT 05/M04 A3003 RMK A01 T00481040  RH  053%=      5-min Rain = 0
KTR1 180505Z 20010KT 05/M04 A3003 RMK A01 T00501040  RH  052%=      5-min Rain = 0
KTR1 180506Z 20011KT 05/M04 A3003 RMK A01 T00511040  RH  052%=      5-min Rain = 0
KTR1 180507Z 20012KT 05/M04 A3003 RMK A01 T00501041  RH  052%=      5-min Rain = 0
KTR1 180508Z 20010KT 05/M04 A3003 RMK A01 T00511040  RH  051%=      5-min Rain = 0
KTR1 180509Z 20011KT 05/M04 A3003 RMK A01 T00521040  RH  051%=      5-min Rain = 0
KTR1 180510Z 20011KT 05/M04 A3003 RMK A01 T00521040  RH  051%=      5-min Rain = 0
KTR1 180511Z 20010KT 05/M04 A3003 RMK A01 T00521040  RH  051%=      5-min Rain = 0
KTR1 180512Z 20010KT 05/M04 A3003 RMK A01 T00511040  RH  052%=      5-min Rain = 0
KTR1 180513Z 20010KT 05/M04 A3003 RMK A01 T00501040  RH  052%=      5-min Rain = 0
KTR1 180514Z 19009KT 05/M04 A3003 RMK A01 T00501040  RH  052%=      5-min Rain = 0
KTR1 180515Z 19008KT 05/M04 A3003 RMK A01 T00481039  RH  053%=      5-min Rain = 0
KTR1 180516Z 19007KT 05/M04 A3003 RMK A01 T00451039  RH  054%=      5-min Rain = 0
KTR1 180517Z 18006KT 04/M04 A3003 RMK A01 T00421039  RH  056%=      5-min Rain = 0
KTR1 180518Z 20008KT 04/M04 A3003 RMK A01 T00411038  RH  056%=      5-min Rain = 0
KTR1 180519Z 19008KT 04/M04 A3003 RMK A01 T00401039  RH  056%=      5-min Rain = 0
KTR1 180520Z 20008KT 04/M04 A3002 RMK A01 T00401040  RH  056%=      5-min Rain = 0
KTR1 180521Z 19009KT 04/M04 A3002 RMK A01 T00401040  RH  056%=      5-min Rain = 0
KTR1 180522Z 19008KT 04/M04 A3002 RMK A01 T00391040  RH  056%=      5-min Rain = 0
KTR1 180523Z 19008KT 04/M04 A3002 RMK A01 T00401040  RH  056%=      5-min Rain = 0
KTR1 180524Z 19009KT 04/M04 A3002 RMK A01 T00401040  RH  056%=      5-min Rain = 0
KTR1 180525Z 19009KT 04/M04 A3002 RMK A01 T00401040  RH  056%=      5-min Rain = 0
KTR1 180526Z 19009KT 04/M04 A3002 RMK A01 T00411040  RH  055%=      5-min Rain = 0
KTR1 180527Z 19008KT 04/M04 A3002 RMK A01 T00431040  RH  055%=      5-min Rain = 0
KTR1 180528Z 20009KT 04/M04 A3002 RMK A01 T00431041  RH  054%=      5-min Rain = 0
KTR1 180529Z 20009KT 04/M04 A3002 RMK A01 T00441040  RH  054%=      5-min Rain = 0
KTR1 180530Z 20009KT 04/M04 A3002 RMK A01 T00441040  RH  054%=      5-min Rain = 0
KTR1 180531Z 20009KT 04/M04 A3002 RMK A01 T00431040  RH  055%=      5-min Rain = 0
KTR1 180532Z 20009KT 04/M04 A3002 RMK A01 T00421040  RH  055%=      5-min Rain = 0
KTR1 180533Z 19008KT 04/M04 A3002 RMK A01 T00401040  RH  056%=      5-min Rain = 0
KTR1 180534Z 19008KT 04/M04 A3002 RMK A01 T00381040  RH  057%=      5-min Rain = 0
KTR1 180535Z 20008KT 04/M04 A3002 RMK A01 T00371039  RH  058%=      5-min Rain = 0
KTR1 180536Z 20009KT 04/M04 A3002 RMK A01 T00351039  RH  058%=      5-min Rain = 0
KTR1 180537Z 20010KT 03/M04 A3002 RMK A01 T00341039  RH  059%=      5-min Rain = 0
KTR1 180538Z 20010KT 03/M04 A3002 RMK A01 T00341039  RH  059%=      5-min Rain = 0
KTR1 180539Z 20011KT 03/M04 A3002 RMK A01 T00341039  RH  059%=      5-min Rain = 0
KTR1 180540Z 20011KT 03/M04 A3001 RMK A01 T00341039  RH  059%=      5-min Rain = 0
KTR1 180541Z 20011KT 03/M04 A3001 RMK A01 T00341039  RH  059%=      5-min Rain = 0
KTR1 180542Z 20011KT 03/M04 A3001 RMK A01 T00341039  RH  059%=      5-min Rain = 0
KTR1 180543Z 20011KT 03/M04 A3001 RMK A01 T00341039  RH  059%=      5-min Rain = 0
KTR1 180544Z 20012KT 04/M04 A3001 RMK A01 T00361038  RH  058%=      5-min Rain = 0
KTR1 180545Z 20012KT 04/M04 A3001 RMK A01 T00371039  RH  058%=      5-min Rain = 0
KTR1 180546Z 20011KT 04/M04 A3001 RMK A01 T00381039  RH  057%=      5-min Rain = 0
KTR1 180547Z 20011KT 04/M04 A3001 RMK A01 T00391039  RH  057%=      5-min Rain = 0
KTR1 180548Z 20011KT 04/M04 A3001 RMK A01 T00381039  RH  057%=      5-min Rain = 0
KTR1 180549Z 19010KT 04/M04 A3001 RMK A01 T00381039  RH  057%=      5-min Rain = 0
KTR1 180550Z 19009KT 04/M04 A3001 RMK A01 T00381039  RH  057%=      5-min Rain = 0
KTR1 180551Z 19009KT 04/M04 A3001 RMK A01 T00371039  RH  058%=      5-min Rain = 0
KTR1 180552Z 19008KT 04/M04 A3001 RMK A01 T00351039  RH  058%=      5-min Rain = 0
KTR1 180553Z 19009KT 03/M04 A3001 RMK A01 T00331039  RH  059%=      5-min Rain = 0
KTR1 180554Z 19010KT 03/M04 A3001 RMK A01 T00331039  RH  059%=      5-min Rain = 0
KTR1 180555Z 19010KT 03/M04 A3001 RMK A01 T00341039  RH  059%=      5-min Rain = 0
KTR1 180556Z 19009KT 04/M04 A3001 RMK A01 T00351039  RH  058%=      5-min Rain = 0
KTR1 180557Z 19010KT 04/M04 A3001 RMK A01 T00351039  RH  058%=      5-min Rain = 0
KTR1 180558Z 19011KT 04/M04 A3001 RMK A01 T00351040  RH  058%=      5-min Rain = 0
KTR1 180559Z 19011KT 04/M04 A3001 RMK A01 T00361040  RH  057%=      5-min Rain = 0

Page generated in 0.1382 seconds.